GEFSMA_con_cape1000_108.txt.gz
Probability
58 58 65 71 74 74 61 55 55 52 35 19 16 19 19 6 6 6 23 81 87 94 97 87 77 81 81 81 77 77 58 48 48 42 35 26 26 23 23 19 16 13 16
58 48 55 55 55 45 42 45 52 39 23 19 19 16 13 6 0 6 13 61 81 87 94 94 84 81 74 68 61 58 55 55 45 35 32 29 26 16 19 19 16 13 10
55 55 55 52 42 32 35 32 29 13 19 13 10 10 6 6 3 6 10 19 35 71 74 81 74 74 71 61 52 52 48 42 42 35 29 23 23 23 10 10 6 6 10
55 52 45 42 35 39 29 26 23 16 16 6 6 3 0 6 3 3 3 3 10 26 58 77 71 65 61 55 55 52 39 39 35 32 29 26 26 19 13 6 3 3 3
45 42 42 42 39 45 32 32 26 10 3 6 6 0 0 0 3 3 3 3 3 0 3 23 48 52 52 52 48 42 42 35 29 23 23 23 23 13 6 3 3 3 3
45 39 35 35 29 32 23 16 10 6 6 6 6 0 0 0 0 3 3 0 0 0 0 3 16 26 42 35 35 35 35 29 26 23 19 16 16 13 3 3 3 3 3
35 35 32 35 29 26 19 16 10 6 6 0 0 0 0 0 0 0 0 0 0 0 0 0 3 3 6 23 13 32 19 19 13 10 13 10 6 6 3 3 3 3 3
19 23 23 26 19 19 23 19 10 6 6 0 0 0 0 0 0 0 0 0 0 0 0 0 0 0 3 3 3 16 19 16 13 6 6 3 3 3 3 3 3 3 3
16 16 16 19 19 23 23 23 13 6 3 0 0 0 0 0 0 0 0 0 0 0 0 0 0 0 0 0 0 3 6 3 3 6 3 3 0 3 3 3 3 3 3
13 13 13 13 13 13 13 16 6 6 6 3 0 0 0 0 0 0 0 0 0 0 0 0 0 0 0 0 0 0 3 3 3 0 0 3 3 3 3 3 3 3 3
13 13 13 13 13 10 13 13 10 3 3 6 0 0 0 0 0 0 0 0 0 0 0 0 0 0 0 0 0 0 0 0 0 0 0 0 0 0 0 0 0 0 0
6 6 10 10 10 6 6 6 10 3 3 0 0 0 0 0 0 0 0 0 0 0 0 0 0 0 0 0 0 0 0 0 0 0 0 0 0 0 0 0 0 0 0
3 3 0 0 3 3 3 6 13 10 0 0 0 0 0 0 0 0 0 0 0 0 0 0 0 0 0 0 0 0 0 0 0 0 0 0 0 0 0 0 0 0 0
0 0 0 0 0 0 3 6 6 6 3 0 0 0 0 0 0 0 0 0 0 0 0 0 0 0 0 0 0 0 0 0 0 0 0 0 0 0 0 0 0 0 0
0 0 0 0 0 0 0 0 0 0 0 3 0 0 0 0 0 0 0 0 0 0 0 0 0 0 0 0 0 0 0 0 0 0 0 0 0 0 0 0 0 0 0
0 0 0 0 0 0 0 0 0 0 0 0 0 0 0 0 0 0 0 0 0 0 0 0 0 0 0 0 0 0 0 0 0 0 0 0 0 0 0 0 0 0 0
0 0 0 0 0 0 0 0 0 0 0 0 0 0 0 0 0 0 0 0 0 0 0 0 0 0 0 0 0 0 0 0 0 0 0 0 0 0 0 0 0 0 0
0 0 0 0 0 0 0 0 0 0 0 0 0 0 0 0 0 0 0 0 0 0 0 0 0 0 0 0 0 0 0 0 0 0 0 0 0 0 0 0 0 0 0
0 0 0 0 0 0 0 0 0 0 0 0 0 0 0 0 0 0 0 0 0 0 0 0 0 0 0 0 0 0 0 0 0 0 0 0 0 0 0 0 0 0 0
0 0 0 0 0 0 0 0 0 0 0 0 0 0 0 0 0 0 0 0 0 0 0 0 0 0 0 0 0 0 0 0 0 0 0 0 0 0 0 0 0 0 0
0 0 0 0 0 0 0 0 0 0 0 0 0 0 0 0 0 0 0 0 0 0 0 0 0 0 0 0 0 0 0 0 0 0 0 0 0 0 0 0 0 0 0
0 0 0 0 0 0 0 0 0 0 0 0 0 0 0 0 0 0 0 0 0 0 0 0 0 0 0 0 0 0 0 0 0 0 0 0 0 0 0 0 0 0 0
0 0 0 0 0 0 0 0 0 0 0 0 0 0 0 0 0 0 0 0 0 0 0 0 0 0 0 0 0 0 0 0 0 0 0 0 0 0 0 0 0 0 0
0 0 0 0 0 0 0 0 0 0 0 0 0 0 0 0 0 0 0 0 0 0 0 0 0 0 0 0 0 0 0 0 0 0 0 0 0 0 0 0 0 0 0
0 0 0 0 0 0 0 0 0 0 0 0 0 0 0 0 0 0 0 0 0 0 0 0 0 0 0 0 0 0 0 0 0 0 0 0 0 0 0 0 0 0 0
0 0 0 0 0 0 0 0 0 0 0 0 0 0 0 0 0 0 0 0 0 0 0 0 0 0 0 0 0 0 0 0 0 0 0 0 0 0 0 0 0 0 0

GEFSMA_con_cape1000_114.txt.gz
Probability
61 52 52 52 65 68 74 65 61 55 55 48 45 42 39 23 32 29 29 61 90 94 94 94 94 90 84 77 74 68 52 45 45 45 39 29 19 19 26 23 19 13 10
55 45 45 52 58 55 52 45 42 45 35 32 35 39 32 10 19 23 23 26 74 77 87 90 90 84 81 81 65 55 52 45 52 45 35 26 19 16 16 19 16 16 10
48 42 42 45 48 45 32 45 32 32 29 19 23 26 26 10 13 16 13 23 39 74 84 84 90 81 81 68 65 58 52 48 45 39 35 29 26 23 16 16 13 10 3
35 26 32 32 32 32 29 26 26 29 26 13 10 10 13 10 16 13 10 6 16 35 65 68 68 71 71 61 58 58 52 45 35 32 32 29 26 19 13 13 10 6 3
26 26 26 26 29 29 19 26 19 16 19 13 3 6 10 6 13 6 6 3 3 16 26 45 48 52 48 52 45 48 42 39 35 35 29 26 26 26 10 6 3 3 3
29 23 26 23 26 23 13 13 19 6 6 3 3 3 3 3 0 3 3 3 3 3 10 13 26 26 39 52 48 42 39 35 32 32 23 19 19 16 6 6 3 3 3
13 13 19 13 13 16 13 6 3 6 3 0 0 0 0 0 0 3 3 3 3 3 3 0 0 13 16 32 29 32 19 26 23 16 13 16 13 6 6 3 3 3 3
6 13 13 13 10 13 13 3 3 0 0 0 0 0 0 0 0 0 0 3 3 3 3 0 0 0 0 0 3 10 13 16 23 13 6 6 6 3 3 0 0 3 3
10 10 10 10 6 6 6 0 0 0 0 0 0 0 0 0 0 0 0 0 3 3 3 0 0 0 0 0 0 3 3 0 6 10 3 3 3 3 6 3 0 3 3
3 6 6 6 6 3 6 3 0 0 3 3 0 0 0 0 0 0 0 0 0 3 0 0 0 0 0 0 0 0 0 0 0 0 0 0 3 3 3 3 3 0 3
3 3 3 3 6 6 6 0 0 0 0 3 3 0 0 0 0 0 0 0 0 0 0 0 0 0 0 0 0 0 0 0 0 0 0 3 3 3 0 0 0 0 0
0 3 3 3 0 0 0 0 3 3 0 0 3 3 0 0 0 0 0 0 0 0 0 0 0 0 0 0 0 0 0 0 0 0 0 0 0 0 0 0 0 0 0
0 0 0 0 0 0 0 0 0 0 3 3 3 6 0 0 0 0 0 0 0 0 0 0 0 0 0 0 0 0 0 0 0 0 0 0 0 0 0 0 0 0 0
0 0 0 0 0 0 0 0 0 0 0 0 0 3 6 0 0 0 0 0 0 0 0 0 0 0 0 0 0 0 0 0 0 0 0 0 0 0 0 0 0 0 0
0 0 0 0 0 0 0 0 0 0 0 0 0 0 3 3 0 0 0 0 0 0 0 0 0 0 0 0 0 0 0 0 0 0 0 0 0 0 0 0 0 0 0
0 0 0 0 0 0 0 0 0 0 0 0 0 3 3 3 0 0 0 0 0 0 0 0 0 0 0 0 0 0 0 0 0 0 0 0 0 0 0 0 0 0 0
0 0 0 0 0 0 0 0 0 0 0 0 0 0 0 0 0 0 0 0 0 0 0 0 0 0 0 0 0 0 0 0 0 0 0 0 0 0 0 0 0 0 0
0 0 0 0 0 0 0 0 0 0 0 0 0 0 0 0 0 0 0 0 0 0 0 0 0 0 0 0 0 0 0 0 0 0 0 0 0 0 0 0 0 0 0
0 0 0 0 0 0 0 0 0 0 0 0 0 0 0 0 0 0 0 0 0 0 0 0 0 0 0 0 0 0 0 0 0 0 0 0 0 0 0 0 0 0 0
0 0 0 0 0 0 0 0 0 0 0 0 0 0 0 0 0 0 0 0 0 0 0 0 0 0 0 0 0 0 0 0 0 0 0 0 0 0 0 0 0 0 0
0 0 0 0 0 0 0 0 0 0 0 0 0 0 0 0 0 0 0 0 0 0 0 0 0 0 0 0 0 0 0 0 0 0 0 0 0 0 0 0 0 0 0
0 0 0 0 0 0 0 0 0 0 0 0 0 0 0 0 0 0 0 0 0 0 0 0 0 0 0 0 0 0 0 0 0 0 0 0 0 0 0 0 0 0 0
0 0 0 0 0 0 0 0 0 0 0 0 0 0 0 0 0 0 0 0 0 0 0 0 0 0 0 0 0 0 0 0 0 0 0 0 0 0 0 0 0 0 0
0 0 0 0 0 0 0 0 0 0 0 0 0 0 0 0 0 0 0 0 0 0 0 0 0 0 0 0 0 0 0 0 0 0 0 0 0 0 0 0 0 0 0
0 0 0 0 0 0 0 0 0 0 0 0 0 0 0 0 0 0 0 0 0 0 0 0 0 0 0 0 0 0 0 0 0 0 0 0 0 0 0 0 0 0 0
0 0 0 0 0 0 0 0 0 0 0 0 0 0 0 0 0 0 0 0 0 0 0 0 0 0 0 0 0 0 0 0 0 0 0 0 0 0 0 0 0 0 0

GEFSMA_con_cape1000_120.txt.gz
Probability
97 90 90 90 84 81 84 90 84 77 71 55 58 42 48 45 55 55 77 94 90 94 94 94 94 90 87 77 71 77 65 61 52 52 45 42 35 29 26 29 23 19 19
94 90 87 87 81 81 84 84 84 84 71 74 68 61 65 55 65 68 61 68 74 81 81 87 87 90 74 71 71 65 58 55 52 52 48 32 29 29 19 19 19 16 16
90 87 84 84 84 81 87 84 74 87 74 71 74 65 71 81 74 81 77 77 68 71 77 81 81 77 74 65 65 55 52 52 52 52 35 29 29 26 16 19 19 23 16
74 84 81 81 84 81 77 77 74 74 81 74 71 71 65 77 71 74 65 68 68 65 68 74 77 71 65 58 58 48 45 45 39 35 29 26 26 19 16 16 13 13 10
61 71 81 77 84 77 71 68 68 68 68 68 58 68 58 48 55 45 52 52 61 68 58 52 61 68 58 45 42 42 45 42 35 29 23 19 16 16 13 6 10 10 3
48 52 52 58 58 61 71 71 68 74 71 71 45 35 58 48 48 52 52 48 58 48 48 45 58 58 42 42 42 39 35 29 35 23 26 23 16 16 6 6 6 3 3
45 42 35 42 45 52 42 52 61 61 58 58 52 45 45 42 35 48 45 39 39 42 48 45 45 42 39 23 26 29 29 23 23 26 26 19 16 13 6 10 6 3 3
39 26 39 39 35 39 45 42 45 45 42 48 48 39 23 26 45 26 29 32 35 35 35 29 32 29 29 32 19 23 19 23 10 13 13 13 13 13 3 3 0 3 3
23 29 32 35 35 32 32 39 35 32 39 32 39 45 26 13 10 26 29 29 32 32 29 32 26 29 19 19 19 10 10 0 10 13 10 6 3 3 0 0 3 3 0
16 16 16 23 26 16 19 19 23 32 23 29 35 39 39 32 16 10 23 29 23 29 26 19 19 23 23 13 13 3 0 0 0 3 6 6 3 0 0 0 0 3 3
3 3 6 6 10 13 13 13 19 23 23 23 26 29 29 32 23 26 13 16 23 13 23 26 26 23 23 16 19 6 0 0 0 0 0 0 0 0 0 0 0 0 0
3 3 3 3 3 6 10 6 10 16 19 26 26 23 16 19 19 26 16 19 16 13 16 23 16 16 16 13 10 3 0 0 0 0 0 0 0 0 0 0 0 0 0
0 0 3 3 3 6 10 10 10 3 16 16 16 19 19 13 23 26 19 19 13 6 10 10 6 6 6 10 10 0 0 0 0 0 0 0 0 0 0 0 0 0 0
0 0 0 0 0 0 0 3 6 6 3 10 10 13 16 13 13 19 23 19 16 10 6 0 3 6 6 6 6 0 0 0 0 0 0 0 0 0 0 0 0 0 0
0 0 0 0 0 0 0 0 0 0 0 3 6 10 13 10 10 16 16 19 16 6 6 10 3 3 3 3 3 0 3 0 0 0 0 0 0 0 0 0 0 0 0
0 0 0 0 0 0 0 0 0 0 0 0 0 0 3 6 6 10 13 16 19 16 10 10 6 0 3 0 0 3 0 0 0 0 0 0 0 0 0 0 0 0 0
0 0 0 0 0 0 0 0 0 0 0 0 0 0 0 0 3 6 10 10 13 10 6 3 3 0 0 0 0 3 3 3 0 0 0 0 0 0 0 0 0 0 0
0 0 0 0 0 0 0 0 0 0 0 0 0 0 0 0 3 6 6 10 10 10 10 6 3 0 0 0 0 0 0 0 0 0 0 0 0 0 0 0 0 0 0
0 0 0 0 0 0 0 0 0 0 0 0 0 0 0 0 3 3 3 3 6 10 10 6 3 0 0 0 0 0 0 0 0 0 0 0 0 0 0 0 0 0 0
0 0 0 0 0 0 0 0 0 0 0 0 0 0 0 0 0 3 3 3 6 6 3 3 3 0 0 0 0 0 0 0 0 0 0 0 0 0 0 0 0 0 0
0 0 0 0 0 0 0 0 0 0 0 0 0 0 0 0 0 0 0 3 6 3 0 0 3 0 0 0 0 0 0 0 0 0 0 0 0 0 0 0 0 0 0
0 0 0 0 0 0 0 0 0 0 0 0 0 0 0 0 0 0 0 0 0 3 0 0 0 0 0 0 0 0 0 0 0 0 0 0 0 0 0 0 0 0 0
0 0 0 0 0 0 0 0 0 0 0 0 0 0 0 0 0 0 0 0 0 0 0 0 0 0 0 0 0 0 0 0 0 0 0 0 0 0 0 0 0 0 0
0 0 0 0 0 0 0 0 0 0 0 0 0 0 0 0 0 0 0 0 0 0 0 0 0 0 0 0 0 0 0 0 0 0 0 0 0 0 0 0 0 0 0
0 0 0 0 0 0 0 0 0 0 0 0 0 0 0 0 0 0 0 0 0 0 0 0 0 0 0 0 0 0 0 0 0 0 0 0 0 0 0 0 0 0 0
0 0 0 0 0 0 0 0 0 0 0 0 0 0 0 0 0 0 0 0 0 0 0 0 0 0 0 0 0 0 0 0 0 0 0 0 0 0 0 0 0 0 0

GEFSMA_con_cape1000_126.txt.gz
Probability
84 87 90 94 94 94 90 87 87 84 81 74 74 68 74 61 58 74 77 94 94 90 94 90 90 84 84 84 77 77 71 65 61 55 52 48 42 42 35 32 32 26 26
77 81 81 90 94 94 90 87 87 84 81 84 71 74 71 68 74 84 87 87 90 87 84 84 84 81 87 84 77 74 71 71 61 61 55 55 42 35 29 32 32 29 23
74 77 77 81 87 84 81 90 90 77 81 77 74 65 74 77 90 81 77 81 84 84 84 77 77 77 77 81 74 74 71 61 58 58 55 55 35 29 23 23 19 23 23
61 74 65 68 81 84 84 77 74 81 74 68 71 71 74 77 81 74 74 71 77 65 68 68 71 68 68 71 71 68 68 48 48 48 48 39 26 23 16 16 16 13 13
55 52 55 58 58 74 77 71 74 74 61 65 65 74 74 71 71 55 65 71 71 71 61 55 58 58 65 61 61 61 55 42 48 45 32 29 29 19 16 16 16 13 6
42 52 61 61 55 61 65 71 65 68 65 61 45 45 65 58 58 52 61 58 65 61 58 45 48 48 61 58 58 48 39 32 32 32 23 16 19 16 16 6 10 13 3
32 39 35 58 52 52 48 48 45 52 55 58 55 48 48 48 55 61 58 58 55 58 48 45 35 32 26 39 42 48 39 32 32 29 19 16 16 13 10 16 10 10 0
26 19 42 35 42 45 42 42 48 42 42 48 48 42 23 32 48 39 55 55 45 39 35 32 26 29 23 23 16 29 26 32 29 23 19 10 10 10 10 10 10 10 0
19 23 23 29 29 32 32 39 39 35 32 32 42 29 19 10 16 23 32 39 35 32 29 23 23 26 23 16 19 16 19 13 23 16 23 10 10 10 6 6 6 13 3
16 19 19 19 23 26 32 26 23 29 19 23 32 26 29 19 10 0 16 16 23 19 16 13 13 19 16 13 6 6 3 3 6 10 10 13 10 6 6 6 6 3 6
3 3 10 16 23 23 23 16 16 23 19 23 13 13 13 16 16 6 0 3 13 16 16 16 16 16 13 10 10 0 0 0 0 3 3 6 10 10 6 3 0 0 0
6 10 10 10 10 10 13 10 16 13 16 16 13 16 13 13 6 6 0 0 3 6 16 16 16 16 13 10 10 0 0 0 0 0 0 0 0 0 0 0 0 0 0
6 6 6 10 10 10 6 6 10 10 16 13 13 13 13 13 13 10 3 3 3 6 6 6 6 6 6 6 6 0 0 0 0 0 0 0 0 0 0 0 0 0 0
6 6 6 0 0 0 0 6 10 6 3 3 0 3 3 3 3 3 0 0 0 3 6 10 13 10 10 10 3 0 0 0 0 0 0 0 0 0 0 0 0 0 0
0 0 0 0 0 0 0 0 0 0 0 0 0 3 3 3 3 6 3 0 0 0 0 6 10 10 10 10 0 0 0 0 0 0 0 0 0 0 0 0 0 0 0
0 0 0 0 0 0 0 0 0 0 0 0 0 0 0 0 3 3 3 0 0 0 0 6 6 10 10 0 0 0 0 0 0 0 0 0 0 0 0 0 0 0 0
0 0 0 0 0 0 0 0 0 0 0 0 0 0 0 0 0 0 0 0 3 6 0 3 3 6 6 0 0 0 0 0 0 0 0 0 0 0 0 0 0 0 0
0 0 0 0 0 0 0 0 0 0 0 0 0 0 0 0 0 0 0 0 0 6 0 0 3 6 6 0 0 0 0 0 0 0 0 0 0 0 0 0 0 0 0
0 0 0 0 0 0 0 0 0 0 0 0 0 0 0 0 0 0 0 0 0 3 3 0 0 0 0 0 0 0 0 0 0 0 0 0 0 0 0 0 0 0 0
0 0 0 0 0 0 0 0 0 0 0 0 0 0 0 0 0 0 0 0 0 3 0 0 0 0 0 0 0 0 0 0 0 0 0 0 0 0 0 0 0 0 0
0 0 0 0 0 0 0 0 0 0 0 0 0 0 0 0 0 0 0 0 0 0 0 0 0 0 0 0 0 0 0 0 0 0 0 0 0 0 0 0 0 0 0
0 0 0 0 0 0 0 0 0 0 0 0 0 0 0 0 0 0 0 0 0 0 0 0 0 0 0 0 0 0 0 0 0 0 0 0 0 0 0 0 0 0 0
0 0 0 0 0 0 0 0 0 0 0 0 0 0 0 0 0 0 0 0 0 0 0 0 0 0 0 0 0 0 0 0 0 0 0 0 0 0 0 0 0 0 0
0 0 0 0 0 0 0 0 0 0 0 0 0 0 0 0 0 0 0 0 0 0 0 0 0 0 0 0 0 0 0 0 0 0 0 0 0 0 0 0 0 0 0
0 0 0 0 0 0 0 0 0 0 0 0 0 0 0 0 0 0 0 0 0 0 0 0 0 0 0 0 0 0 0 0 0 0 0 0 0 0 0 0 0 0 0
0 0 0 0 0 0 0 0 0 0 0 0 0 0 0 0 0 0 0 0 0 0 0 0 0 0 0 0 0 0 0 0 0 0 0 0 0 0 0 0 0 0 0

GEFSMA_con_cape1000_132.txt.gz
Probability
32 32 35 35 42 39 39 42 35 39 32 32 35 32 23 26 16 10 23 74 81 84 90 81 87 90 90 87 84 87 71 68 71 68 61 45 45 29 26 29 29 26 26
26 29 29 26 26 32 32 35 35 35 26 32 32 26 23 13 10 13 19 55 77 74 87 87 84 74 71 71 81 84 74 68 71 65 61 52 45 42 35 26 29 26 26
23 19 19 13 16 23 23 23 16 13 13 16 16 16 16 13 13 6 13 16 48 77 71 77 74 71 71 68 68 68 68 68 68 65 61 58 52 39 32 29 29 26 23
19 10 16 16 13 10 10 6 10 3 3 3 10 6 10 6 13 6 13 16 19 16 48 65 65 65 65 58 61 61 61 65 68 61 58 58 52 45 26 23 16 6 16
10 13 13 10 6 6 3 6 0 0 0 0 0 3 3 6 10 10 10 6 6 6 3 26 58 58 55 55 58 58 55 55 58 48 42 42 42 32 16 6 6 3 3
10 13 6 6 3 3 3 3 3 0 0 0 3 3 0 0 0 3 3 3 3 3 3 3 16 29 45 52 45 45 42 35 42 39 35 32 29 26 19 6 6 6 0
10 10 6 6 3 3 3 3 3 0 0 0 0 0 0 0 0 0 0 0 0 3 3 3 3 3 10 32 32 32 35 29 26 26 23 26 26 16 13 10 3 3 0
6 10 3 3 3 3 3 3 0 0 0 0 0 0 0 0 0 0 0 0 0 0 0 0 0 0 0 0 0 19 23 32 29 23 23 19 16 16 6 6 6 3 0
0 0 3 3 0 3 0 0 0 0 0 0 0 0 0 0 0 0 0 0 0 0 0 0 0 0 0 0 0 3 10 10 23 29 19 19 10 10 6 3 3 0 3
0 0 0 0 0 0 0 0 0 0 0 0 0 0 0 0 0 0 0 0 0 0 0 0 0 0 0 0 0 0 0 0 3 10 16 19 10 6 10 6 3 3 3
0 0 0 0 0 3 0 0 0 0 0 0 0 0 0 0 0 0 0 0 0 0 0 0 0 0 0 0 0 0 0 0 0 0 0 3 3 3 10 6 10 6 6
0 0 0 0 0 0 0 0 0 0 0 0 0 0 0 0 0 0 0 0 0 0 0 0 0 0 0 0 0 0 0 0 0 0 0 0 0 3 3 6 6 6 6
0 0 0 0 0 0 0 0 0 0 0 0 0 0 0 0 0 0 0 0 0 0 0 0 0 0 0 0 0 0 0 0 0 0 0 0 0 0 0 0 0 3 6
0 0 0 0 0 0 0 0 0 0 0 0 0 0 0 0 0 0 0 0 0 0 0 0 0 0 0 0 0 0 0 0 0 0 0 0 0 0 0 0 0 0 0
0 0 0 0 0 0 0 0 0 0 0 0 0 0 0 0 0 0 0 0 0 0 0 0 0 0 0 0 0 0 0 0 0 0 0 0 0 0 0 0 0 0 0
0 0 0 0 0 0 0 0 0 0 0 0 0 0 0 0 0 0 0 0 0 0 0 0 0 0 0 0 0 0 0 0 0 0 0 0 0 0 0 0 0 0 0
0 0 0 0 0 0 0 0 0 0 0 0 0 0 0 0 0 0 0 0 0 0 0 0 0 0 0 0 0 0 0 0 0 0 0 0 0 0 0 0 0 0 0
0 0 0 0 0 0 0 0 0 0 0 0 0 0 0 0 0 0 0 0 0 0 0 0 0 0 0 0 0 0 0 0 0 0 0 0 0 0 0 0 0 0 0
0 0 0 0 0 0 0 0 0 0 0 0 0 0 0 0 0 0 0 0 0 0 0 0 0 0 0 0 0 0 0 0 0 0 0 0 0 0 0 0 0 0 0
0 0 0 0 0 0 0 0 0 0 0 0 0 0 0 0 0 0 0 0 0 0 0 0 0 0 0 0 0 0 0 0 0 0 0 0 0 0 0 0 0 0 0
0 0 0 0 0 0 0 0 0 0 0 0 0 0 0 0 0 0 0 0 0 0 0 0 0 0 0 0 0 0 0 0 0 0 0 0 0 0 0 0 0 0 0
0 0 0 0 0 0 0 0 0 0 0 0 0 0 0 0 0 0 0 0 0 0 0 0 0 0 0 0 0 0 0 0 0 0 0 0 0 0 0 0 0 0 0
0 0 0 0 0 0 0 0 0 0 0 0 0 0 0 0 0 0 0 0 0 0 0 0 0 0 0 0 0 0 0 0 0 0 0 0 0 0 0 0 0 0 0
0 0 0 0 0 0 0 0 0 0 0 0 0 0 0 0 0 0 0 0 0 0 0 0 0 0 0 0 0 0 0 0 0 0 0 0 0 0 0 0 0 0 0
0 0 0 0 0 0 0 0 0 0 0 0 0 0 0 0 0 0 0 0 0 0 0 0 0 0 0 0 0 0 0 0 0 0 0 0 0 0 0 0 0 0 0
0 0 0 0 0 0 0 0 0 0 0 0 0 0 0 0 0 0 0 0 0 0 0 0 0 0 0 0 0 0 0 0 0 0 0 0 0 0 0 0 0 0 0

GEFSMA_con_cape1000_138.txt.gz
Probability
29 29 29 29 39 39 39 39 32 29 29 35 35 39 32 35 35 35 23 61 87 87 84 94 90 81 81 81 77 77 81 74 65 58 61 55 52 48 32 29 26 32 26
29 23 23 26 26 26 29 29 29 29 26 26 26 26 29 32 29 32 29 32 65 84 87 90 87 77 77 74 68 68 68 71 65 55 58 48 45 39 29 29 29 29 19
19 13 13 19 19 23 19 19 16 16 16 13 16 26 32 29 32 29 26 23 32 61 71 74 68 74 68 71 58 65 65 55 55 52 55 52 42 39 32 26 23 26 16
13 10 6 3 6 3 0 0 3 6 3 6 3 3 6 16 19 13 19 16 19 29 48 52 55 58 61 58 55 52 52 58 52 48 45 48 39 35 23 16 10 6 10
6 3 6 3 0 3 0 0 0 0 0 0 0 0 0 0 3 10 10 10 13 16 23 26 42 48 52 58 55 52 48 52 48 42 39 32 35 32 19 16 3 3 3
10 3 6 6 0 0 3 0 0 0 0 0 0 0 0 0 0 0 3 3 10 10 10 10 19 26 35 39 45 45 42 32 39 35 26 19 19 19 13 3 6 3 0
3 6 3 3 3 3 3 0 0 0 0 0 0 0 0 0 0 0 0 3 3 10 6 6 10 10 13 16 13 19 32 32 35 29 26 19 16 13 10 6 0 0 0
0 0 0 0 0 0 0 0 0 0 0 0 0 0 0 0 0 0 0 0 3 3 3 0 3 6 6 6 6 10 13 23 23 26 23 23 13 6 6 0 3 0 0
0 0 0 0 0 0 0 0 0 0 0 0 0 0 0 0 0 0 0 0 0 0 3 3 3 3 3 3 6 3 6 6 13 13 16 16 13 3 3 3 3 3 0
0 0 0 0 0 0 0 0 0 0 0 0 0 0 0 0 0 0 0 0 0 3 3 0 3 3 3 3 0 0 0 0 3 10 13 6 6 6 6 3 3 3 6
0 0 0 0 0 0 0 0 0 0 0 0 0 0 0 0 0 0 0 0 0 0 0 3 3 3 3 3 3 0 0 0 0 0 3 3 3 6 3 6 0 3 6
0 0 0 0 0 0 0 0 0 0 0 0 0 0 0 0 0 0 0 0 0 0 0 0 0 0 0 3 0 0 0 0 0 0 0 0 3 3 0 6 0 3 6
0 0 0 0 0 0 0 0 0 0 0 0 0 0 0 0 0 0 0 0 0 0 0 0 0 0 0 0 0 0 0 0 0 0 0 0 0 0 0 0 0 0 0
0 0 0 0 0 0 0 0 0 0 0 0 0 0 0 0 0 0 0 0 0 0 0 0 0 0 0 0 0 0 0 0 0 0 0 0 0 0 0 0 0 0 0
0 0 0 0 0 0 0 0 0 0 0 0 0 0 0 0 0 0 0 0 0 0 0 0 0 0 0 0 0 0 0 0 0 0 0 0 0 0 0 0 0 0 0
0 0 0 0 0 0 0 0 0 0 0 0 0 0 0 0 0 0 0 0 0 0 0 0 0 0 0 0 0 0 0 0 0 0 0 0 0 0 0 0 0 0 0
0 0 0 0 0 0 0 0 0 0 0 0 0 0 0 0 0 0 0 0 0 0 0 0 0 0 0 0 0 0 0 0 0 0 0 0 0 0 0 0 0 0 0
0 0 0 0 0 0 0 0 0 0 0 0 0 0 0 0 0 0 0 0 0 0 0 0 0 0 0 0 0 0 0 0 0 0 0 0 0 0 0 0 0 0 0
0 0 0 0 0 0 0 0 0 0 0 0 0 0 0 0 0 0 0 0 0 0 0 0 0 0 0 0 0 0 0 0 0 0 0 0 0 0 0 0 0 0 0
0 0 0 0 0 0 0 0 0 0 0 0 0 0 0 0 0 0 0 0 0 0 0 0 0 0 0 0 0 0 0 0 0 0 0 0 0 0 0 0 0 0 0
0 0 0 0 0 0 0 0 0 0 0 0 0 0 0 0 0 0 0 0 0 0 0 0 0 0 0 0 0 0 0 0 0 0 0 0 0 0 0 0 0 0 0
0 0 0 0 0 0 0 0 0 0 0 0 0 0 0 0 0 0 0 0 0 0 0 0 0 0 0 0 0 0 0 0 0 0 0 0 0 0 0 0 0 0 0
0 0 0 0 0 0 0 0 0 0 0 0 0 0 0 0 0 0 0 0 0 0 0 0 0 0 0 0 0 0 0 0 0 0 0 0 0 0 0 0 0 0 0
0 0 0 0 0 0 0 0 0 0 0 0 0 0 0 0 0 0 0 0 0 0 0 0 0 0 0 0 0 0 0 0 0 0 0 0 0 0 0 0 0 0 0
0 0 0 0 0 0 0 0 0 0 0 0 0 0 0 0 0 0 0 0 0 0 0 0 0 0 0 0 0 0 0 0 0 0 0 0 0 0 0 0 0 0 0
0 0 0 0 0 0 0 0 0 0 0 0 0 0 0 0 0 0 0 0 0 0 0 0 0 0 0 0 0 0 0 0 0 0 0 0 0 0 0 0 0 0 0

GEFSMA_con_cape1000_144.txt.gz
Probability
84 81 84 84 71 74 77 87 90 81 74 65 55 42 45 52 55 58 74 81 87 87 84 84 84 84 74 65 68 68 65 55 58 71 65 68 61 55 55 52 48 45 45
71 74 77 81 77 77 81 81 81 81 71 68 55 58 55 42 52 68 65 71 84 84 81 77 74 71 61 65 61 55 58 52 61 61 65 48 45 48 45 42 39 39 29
61 61 68 71 71 68 71 74 71 71 71 61 58 61 65 55 48 61 61 71 65 74 71 65 65 61 58 58 61 55 52 48 48 48 52 42 42 39 35 39 35 26 23
39 48 52 52 55 48 58 58 61 61 65 55 45 45 45 55 42 52 52 58 68 55 48 48 48 55 55 52 52 48 45 52 52 42 42 29 35 32 26 29 19 19 13
35 39 42 48 42 42 39 35 39 45 39 32 29 35 32 39 45 35 42 48 52 58 48 48 45 48 48 48 45 45 45 52 39 32 35 32 29 26 26 19 16 10 6
35 35 35 32 35 39 35 39 35 39 39 35 13 13 19 26 32 35 39 35 35 35 45 39 35 42 42 35 42 39 39 45 39 35 32 32 29 26 16 13 13 13 3
26 32 19 29 23 16 29 19 23 19 19 26 16 13 16 19 23 26 29 35 19 23 32 35 39 35 42 26 26 29 32 32 39 26 29 35 29 13 13 6 6 10 0
23 13 16 19 19 23 19 23 23 29 10 10 16 16 16 13 29 6 23 23 16 23 26 19 29 32 32 35 19 26 26 26 23 29 32 26 16 10 10 10 10 3 0
10 6 10 13 13 10 13 16 23 19 16 13 10 13 10 10 13 6 0 0 6 16 13 16 16 23 26 32 32 16 6 6 19 19 16 13 6 6 10 6 10 0 3
10 10 10 10 6 6 10 3 3 19 13 19 16 19 16 19 13 10 10 6 10 6 10 6 10 13 23 29 19 6 3 3 3 10 10 6 3 3 3 3 10 10 10
10 6 6 6 6 6 3 0 3 3 3 13 13 13 16 13 3 6 6 3 3 3 6 6 6 6 13 19 26 13 3 3 3 3 3 6 3 3 3 3 3 6 6
6 0 0 6 0 0 0 0 0 0 3 3 6 10 10 10 10 6 6 6 6 3 6 6 10 6 13 13 13 3 3 0 0 0 0 3 3 3 3 6 3 3 6
0 3 0 0 0 0 0 0 0 0 0 0 3 6 6 6 6 10 6 3 3 3 6 3 3 6 3 10 10 3 0 0 0 0 0 0 0 3 3 3 3 3 3
0 0 0 0 0 0 0 0 0 0 0 0 0 0 3 0 3 3 3 6 6 3 3 0 0 0 0 3 3 0 3 0 0 0 0 0 0 0 0 0 0 0 0
0 0 0 0 0 0 0 0 0 0 0 0 0 0 0 0 0 3 6 3 3 3 0 0 0 0 0 0 0 3 6 3 0 0 0 0 0 0 0 0 0 0 0
0 0 0 0 0 0 0 0 0 0 0 0 0 0 0 0 0 0 0 3 6 0 0 3 0 0 0 0 0 0 0 0 0 0 0 0 0 0 0 0 0 0 0
0 0 0 0 0 0 0 0 0 0 0 0 0 0 0 0 0 0 0 0 0 0 0 0 0 0 0 0 0 0 0 0 0 0 0 0 0 0 0 0 0 0 0
0 0 0 0 0 0 0 0 0 0 0 0 0 0 0 0 0 0 0 0 0 0 0 0 0 0 0 0 0 0 0 0 0 0 0 0 0 0 0 0 0 0 0
0 0 0 0 0 0 0 0 0 0 0 0 0 0 0 0 0 0 0 0 0 0 0 0 0 0 0 0 0 0 0 0 0 0 0 0 0 0 0 0 0 0 0
0 0 0 0 0 0 0 0 0 0 0 0 0 0 0 0 0 0 0 0 0 0 0 0 0 0 0 0 0 0 0 0 0 0 0 0 0 0 0 0 0 0 0
0 0 0 0 0 0 0 0 0 0 0 0 0 0 0 0 0 0 0 0 0 0 0 0 0 0 0 0 0 0 0 0 0 0 0 0 0 0 0 0 0 0 0
0 0 0 0 0 0 0 0 0 0 0 0 0 0 0 0 0 0 0 0 0 0 0 0 0 0 0 0 0 0 0 0 0 0 0 0 0 0 0 0 0 0 0
0 0 0 0 0 0 0 0 0 0 0 0 0 0 0 0 0 0 0 0 0 0 0 0 0 0 0 0 0 0 0 0 0 0 0 0 0 0 0 0 0 0 0
0 0 0 0 0 0 0 0 0 0 0 0 0 0 0 0 0 0 0 0 0 0 0 0 0 0 0 0 0 0 0 0 0 0 0 0 0 0 0 0 0 0 0
0 0 0 0 0 0 0 0 0 0 0 0 0 0 0 0 0 0 0 0 0 0 0 0 0 0 0 0 0 0 0 0 0 0 0 0 0 0 0 0 0 0 0
0 0 0 0 0 0 0 0 0 0 0 0 0 0 0 0 0 0 0 0 0 0 0 0 0 0 0 0 0 0 0 0 0 0 0 0 0 0 0 0 0 0 0

GEFSMA_con_cape1000_150.txt.gz
Probability
90 90 97 90 81 84 81 74 77 68 74 71 68 61 65 58 48 65 74 84 87 87 94 90 94 87 87 84 90 77 71 71 68 65 71 68 68 65 65 61 58 61 58
87 84 90 87 81 84 77 81 74 71 74 71 71 65 61 48 58 55 58 77 81 81 81 81 84 74 74 77 81 68 65 61 65 61 61 58 55 55 58 55 48 52 48
71 71 71 81 77 74 77 77 68 71 71 61 65 61 55 55 52 58 58 61 61 71 77 74 77 77 71 65 65 61 61 61 61 61 61 58 55 55 48 48 39 45 39
45 55 55 58 71 68 71 68 58 61 55 55 55 48 42 45 39 42 48 42 45 48 58 58 61 61 55 52 55 52 55 55 61 55 52 52 48 45 48 42 39 35 32
48 48 45 55 52 58 65 42 45 45 48 42 29 32 23 32 39 32 42 42 45 52 42 45 61 55 48 48 48 48 52 48 48 45 42 39 35 39 32 32 26 19 19
32 32 39 42 39 45 52 48 42 45 42 29 10 10 23 26 26 29 32 32 45 45 45 45 45 45 45 48 52 39 42 45 48 48 45 39 29 29 23 23 16 10 6
35 35 35 32 42 39 35 32 32 29 32 29 26 16 16 16 29 29 32 26 23 29 39 42 39 35 35 42 45 42 39 39 35 39 35 35 26 26 19 16 10 6 3
32 13 29 32 35 42 42 35 32 29 19 23 13 6 6 13 19 6 26 26 19 26 29 32 32 32 32 23 19 32 35 35 35 35 35 23 16 23 23 13 13 10 3
19 16 19 19 19 19 23 26 23 23 13 13 6 10 6 3 10 10 13 10 16 26 23 23 23 29 29 23 16 16 29 26 32 29 29 23 10 10 13 13 13 13 3
19 13 16 13 16 16 13 10 13 10 6 10 6 10 10 6 3 6 6 0 3 10 16 10 6 6 19 19 13 13 16 13 16 19 19 19 13 10 6 3 3 6 0
16 13 10 10 13 10 6 6 10 6 6 6 3 3 3 6 6 6 3 0 0 3 6 10 6 3 3 16 13 3 3 3 3 6 6 6 6 6 6 10 6 3 3
19 16 10 10 10 6 10 6 6 3 0 0 0 3 3 3 6 6 3 3 3 0 0 3 0 0 0 0 0 0 3 3 0 3 3 3 3 6 3 3 3 3 3
16 13 6 6 6 6 3 3 3 3 0 0 0 0 0 3 3 0 0 0 3 3 0 0 0 0 0 0 0 0 0 0 0 0 0 0 3 3 3 3 3 3 3
6 10 6 3 6 6 3 3 3 3 0 0 0 0 0 0 0 0 0 0 0 3 0 0 0 0 0 0 0 0 0 0 0 0 0 0 0 0 3 3 0 0 0
6 6 3 3 0 0 0 0 3 0 0 0 0 0 0 0 0 3 0 0 0 0 0 0 0 0 0 0 0 0 3 0 0 0 0 0 0 0 0 0 0 0 0
6 6 3 0 0 0 0 0 0 0 0 0 0 0 0 0 0 0 0 0 0 0 0 3 0 0 0 0 0 0 0 0 0 0 0 0 0 0 0 0 0 0 0
6 3 0 0 0 0 0 0 0 0 0 0 0 0 0 0 0 0 0 0 0 0 0 0 0 0 0 0 0 0 0 0 0 0 0 0 0 0 0 0 0 0 0
3 0 3 0 0 0 0 0 0 0 0 0 0 0 0 0 0 0 0 0 0 0 0 0 0 0 0 0 0 0 0 0 0 0 0 0 0 0 0 0 0 0 0
3 3 0 0 0 0 0 0 0 0 0 0 0 0 0 0 0 0 0 0 0 0 0 0 0 0 0 0 0 0 0 0 0 0 0 0 0 0 0 0 0 0 0
3 3 0 0 0 0 0 0 0 0 0 0 0 0 0 0 0 0 0 0 0 0 0 0 0 0 0 0 0 0 0 0 0 0 0 0 0 0 0 0 0 0 0
3 3 0 0 0 0 0 0 0 0 0 0 0 0 0 0 0 0 0 0 0 0 0 0 0 0 0 0 0 0 0 0 0 0 0 0 0 0 0 0 0 0 0
3 3 0 0 0 0 0 0 0 0 0 0 0 0 0 0 0 0 0 0 0 0 0 0 0 0 0 0 0 0 0 0 0 0 0 0 0 0 0 0 0 0 0
3 0 0 0 0 0 0 0 0 0 0 0 0 0 0 0 0 0 0 0 0 0 0 0 0 0 0 0 0 0 0 0 0 0 0 0 0 0 0 0 0 0 0
3 3 0 0 0 0 0 0 0 0 0 0 0 0 0 0 0 0 0 0 0 0 0 0 0 0 0 0 0 0 0 0 0 0 0 0 0 0 0 0 0 0 0
3 3 3 0 0 0 0 0 0 0 0 0 0 0 0 0 0 0 0 0 0 0 0 0 0 0 0 0 0 0 0 0 0 0 0 0 0 0 0 3 0 0 0
3 3 3 0 0 0 0 0 0 0 0 0 0 0 0 0 0 0 0 0 0 0 0 0 0 0 0 0 0 0 0 0 0 0 0 0 0 0 0 0 0 0 0

GEFSMA_con_cape1000_156.txt.gz
Probability
16 16 19 13 19 13 13 10 13 19 23 19 23 13 10 13 16 6 3 45 71 84 81 84 81 81 87 94 94 94 90 84 74 68 68 71 61 68 61 61 61 48 42
16 16 19 16 13 13 6 3 10 10 6 6 10 6 6 3 3 0 3 16 58 68 74 81 84 84 81 84 87 90 84 77 74 68 65 68 61 61 55 52 52 55 48
13 13 13 6 6 6 6 6 6 6 6 6 6 3 3 3 6 0 0 6 16 39 61 77 87 77 77 71 68 68 65 68 68 68 65 58 61 58 52 45 42 45 35
19 16 10 3 3 3 6 6 6 6 3 0 0 0 0 0 0 0 0 0 3 10 42 65 65 61 58 58 58 65 61 58 58 65 61 61 55 48 45 48 42 35 35
23 10 10 10 10 10 6 6 3 0 0 0 0 0 0 0 0 0 0 0 0 0 3 16 48 48 48 52 58 58 58 61 55 61 58 55 52 48 42 32 35 32 32
13 10 3 10 13 10 3 3 3 0 0 0 0 0 0 0 0 0 0 0 0 0 0 3 0 13 42 48 55 48 52 48 48 55 52 55 55 42 39 32 26 26 29
6 6 6 6 6 6 0 0 0 0 0 0 0 0 0 0 0 0 0 0 0 0 0 0 0 0 0 29 35 42 45 39 42 45 42 42 42 26 26 19 16 13 10
6 6 6 6 6 6 0 0 0 0 0 0 0 0 0 0 0 0 0 0 0 0 0 0 0 0 0 0 3 32 32 35 35 35 35 39 26 19 19 16 16 13 10
3 3 3 3 3 3 0 0 0 0 0 0 0 0 0 0 0 0 0 0 0 0 0 0 0 0 0 0 0 0 6 6 26 23 32 23 23 13 16 19 10 10 10
3 3 3 3 3 0 0 0 0 0 0 0 0 0 0 0 0 0 0 0 0 0 0 0 0 0 0 0 0 0 0 0 0 19 26 19 19 13 13 13 13 10 10
0 0 3 3 0 0 0 0 0 0 0 0 0 0 0 0 0 0 0 0 0 0 0 0 0 0 0 0 0 0 0 0 0 0 0 13 19 16 6 10 10 6 6
0 0 0 0 0 0 0 0 0 0 0 0 0 0 0 0 0 0 0 0 0 0 0 0 0 0 0 0 0 0 0 0 0 0 0 3 6 6 6 6 6 10 10
0 0 0 0 0 0 0 0 0 0 0 0 0 0 0 0 0 0 0 0 0 0 0 0 0 0 0 0 0 0 0 0 0 0 0 0 3 3 3 3 3 3 3
0 0 0 0 0 0 0 0 0 0 0 0 0 0 0 0 0 0 0 0 0 0 0 0 0 0 0 0 0 0 0 0 0 0 0 0 0 3 3 3 3 0 0
0 0 0 0 0 0 0 0 0 0 0 0 0 0 0 0 0 0 0 0 0 0 0 0 0 0 0 0 0 0 0 0 0 0 0 0 0 0 0 0 0 0 0
0 0 0 0 0 0 0 0 0 0 0 0 0 0 0 0 0 0 0 0 0 0 0 0 0 0 0 0 0 0 0 0 0 0 0 0 0 0 0 0 0 0 0
0 0 0 0 0 0 0 0 0 0 0 0 0 0 0 0 0 0 0 0 0 0 0 0 0 0 0 0 0 0 0 0 0 0 0 0 0 0 0 0 0 0 0
0 0 0 0 0 0 0 0 0 0 0 0 0 0 0 0 0 0 0 0 0 0 0 0 0 0 0 0 0 0 0 0 0 0 0 0 0 0 0 0 0 0 0
0 0 0 0 0 0 0 0 0 0 0 0 0 0 0 0 0 0 0 0 0 0 0 0 0 0 0 0 0 0 0 0 0 0 0 0 0 0 0 0 0 0 0
0 0 0 0 0 0 0 0 0 0 0 0 0 0 0 0 0 0 0 0 0 0 0 0 0 0 0 0 0 0 0 0 0 0 0 0 0 0 0 0 0 0 0
0 0 0 0 0 0 0 0 0 0 0 0 0 0 0 0 0 0 0 0 0 0 0 0 0 0 0 0 0 0 0 0 0 0 0 0 0 0 0 0 0 0 0
0 0 0 0 0 0 0 0 0 0 0 0 0 0 0 0 0 0 0 0 0 0 0 0 0 0 0 0 0 0 0 0 0 0 0 0 0 0 0 0 0 0 0
0 0 0 0 0 0 0 0 0 0 0 0 0 0 0 0 0 0 0 0 0 0 0 0 0 0 0 0 0 0 0 0 0 0 0 0 0 0 0 0 0 0 0
0 0 0 0 0 0 0 0 0 0 0 0 0 0 0 0 0 0 0 0 0 0 0 0 0 0 0 0 0 0 0 0 0 0 0 0 0 0 0 0 0 0 0
0 0 0 0 0 0 0 0 0 0 0 0 0 0 0 0 0 0 0 0 0 0 0 0 0 0 0 0 0 0 0 0 0 0 0 0 0 0 0 0 0 0 0
0 0 0 0 0 0 0 0 0 0 0 0 0 0 0 0 0 0 0 0 0 0 0 0 0 0 0 0 0 0 0 0 0 0 0 0 0 0 0 0 0 0 0

GEFSMA_con_cape1000_162.txt.gz
Probability
29 10 6 10 6 16 16 16 19 19 23 19 16 13 13 16 13 16 13 42 65 81 74 74 74 81 77 74 74 84 87 87 84 84 84 84 74 74 68 61 61 58 52
10 6 6 3 3 6 13 16 16 13 10 10 10 13 10 10 10 3 10 13 35 61 77 68 71 71 77 77 77 81 84 84 87 74 74 74 68 65 65 58 55 52 52
13 6 6 6 3 3 0 0 0 3 3 3 6 6 6 6 6 3 3 3 0 13 32 55 65 61 71 71 74 71 77 81 81 74 68 65 68 61 52 58 52 52 48
10 6 6 6 3 0 0 0 0 0 0 0 0 0 0 3 3 3 3 0 0 3 6 26 39 45 58 65 65 58 61 74 68 68 61 61 58 61 48 48 45 48 45
6 6 6 6 0 0 0 3 0 0 0 0 0 0 0 0 0 0 3 0 0 0 0 6 23 35 35 48 45 42 45 52 55 55 55 55 58 52 45 42 39 35 42
6 6 6 3 0 0 0 0 0 0 0 0 0 0 0 0 0 0 3 3 0 0 0 0 0 10 23 23 32 29 26 32 45 39 42 35 35 39 35 35 35 35 32
6 6 6 6 3 0 3 0 0 0 0 0 0 0 0 0 0 0 0 0 0 0 0 0 0 0 0 6 19 26 23 23 26 32 39 35 26 23 23 29 26 26 23
6 6 6 3 0 0 0 0 0 0 0 0 0 0 0 0 0 0 0 0 0 0 0 0 0 0 0 0 0 13 26 16 16 23 32 32 19 23 16 23 23 16 10
6 6 3 0 0 0 0 0 0 0 0 0 0 0 0 0 0 0 0 0 0 0 0 0 0 0 0 0 0 0 3 0 16 16 16 26 16 13 13 13 19 19 16
0 3 0 0 0 0 0 0 0 0 0 0 0 0 0 0 0 0 0 0 0 0 0 0 0 0 0 0 0 0 0 0 0 13 16 16 16 13 10 13 13 16 16
0 0 0 0 0 0 0 0 0 0 0 0 0 0 0 0 0 0 0 0 0 0 0 0 0 0 0 0 0 0 0 0 0 0 3 6 10 10 3 6 13 13 13
0 0 0 0 0 0 0 0 0 0 0 0 0 0 0 0 0 0 0 0 0 0 0 0 0 0 0 0 0 0 0 0 0 0 0 0 3 3 0 0 3 6 6
0 0 0 0 0 0 0 0 0 0 0 0 0 0 0 0 0 0 0 0 0 0 0 0 0 0 0 0 0 0 0 0 0 0 0 0 0 0 0 0 0 3 3
0 0 0 0 0 0 0 0 0 0 0 0 0 0 0 0 0 0 0 0 0 0 0 0 0 0 0 0 0 0 0 0 0 0 0 0 0 0 0 0 0 3 3
0 0 0 0 0 0 0 0 0 0 0 0 0 0 0 0 0 0 0 0 0 0 0 0 0 0 0 0 0 0 0 0 0 0 0 0 0 0 0 0 0 3 3
0 0 0 0 0 0 0 0 0 0 0 0 0 0 0 0 0 0 0 0 0 0 0 0 0 0 0 0 0 0 0 0 0 0 0 0 0 0 0 0 0 0 0
0 0 0 0 0 0 0 0 0 0 0 0 0 0 0 0 0 0 0 0 0 0 0 0 0 0 0 0 0 0 0 0 0 0 0 0 0 0 0 0 0 0 0
0 0 0 0 0 0 0 0 0 0 0 0 0 0 0 0 0 0 0 0 0 0 0 0 0 0 0 0 0 0 0 0 0 0 0 0 0 0 0 0 0 0 0
0 0 0 0 0 0 0 0 0 0 0 0 0 0 0 0 0 0 0 0 0 0 0 0 0 0 0 0 0 0 0 0 0 0 0 0 0 0 0 0 0 0 0
0 0 0 0 0 0 0 0 0 0 0 0 0 0 0 0 0 0 0 0 0 0 0 0 0 0 0 0 0 0 0 0 0 0 0 0 0 0 0 0 0 0 0
0 0 0 0 0 0 0 0 0 0 0 0 0 0 0 0 0 0 0 0 0 0 0 0 0 0 0 0 0 0 0 0 0 0 0 0 0 0 0 0 0 0 0
0 0 0 0 0 0 0 0 0 0 0 0 0 0 0 0 0 0 0 0 0 0 0 0 0 0 0 0 0 0 0 0 0 0 0 0 0 0 0 0 0 0 0
0 0 0 0 0 0 0 0 0 0 0 0 0 0 0 0 0 0 0 0 0 0 0 0 0 0 0 0 0 0 0 0 0 0 0 0 0 0 0 0 0 0 0
0 0 0 0 0 0 0 0 0 0 0 0 0 0 0 0 0 0 0 0 0 0 0 0 0 0 0 0 0 0 0 0 0 0 0 0 0 0 0 0 0 0 0
0 0 0 0 0 0 0 0 0 0 0 0 0 0 0 0 0 0 0 0 0 0 0 0 0 0 0 0 0 0 0 0 0 0 0 0 0 0 0 0 0 0 0
0 0 0 0 0 0 0 0 0 0 0 0 0 0 0 0 0 0 0 0 0 0 0 0 0 0 0 0 0 0 0 0 0 0 0 0 0 0 0 0 0 0 0

GEFSMA_con_cape1000_168.txt.gz
Probability
65 58 61 61 55 52 55 52 45 45 42 42 32 35 48 42 39 32 39 52 55 48 58 61 65 74 71 61 68 68 58 68 68 77 84 81 81 74 71 74 71 74 77
61 61 65 61 55 42 45 29 26 42 42 39 29 29 35 48 45 45 32 42 48 45 45 45 61 61 58 58 61 61 58 55 61 68 74 81 77 71 74 74 71 71 71
55 58 52 45 35 32 35 29 23 32 35 32 26 29 32 26 29 32 35 42 35 32 35 45 45 45 45 39 55 61 68 68 58 68 74 71 71 68 71 65 65 65 61
55 55 42 32 35 29 35 29 26 23 23 16 23 19 19 29 29 26 29 39 29 32 32 35 35 42 39 39 35 45 52 65 58 55 58 65 61 55 55 58 52 52 55
48 42 39 39 39 32 32 16 16 23 19 19 13 16 19 19 32 23 19 29 32 32 32 19 19 29 35 29 32 39 45 45 55 52 52 58 55 58 55 52 48 39 42
42 39 42 39 32 29 29 23 23 23 19 19 6 6 10 19 23 19 13 13 26 23 19 16 26 26 19 23 29 29 29 32 35 35 45 45 45 48 35 29 39 35 29
32 42 32 35 32 26 26 19 23 16 19 16 19 13 6 6 3 6 10 13 10 10 10 19 16 19 23 10 13 19 26 23 29 32 32 32 39 35 29 29 23 29 29
35 26 29 29 26 32 29 19 23 16 16 16 10 6 0 6 6 0 3 0 3 6 10 6 6 16 16 16 13 10 16 19 19 19 23 23 16 23 19 19 16 19 16
35 32 26 19 23 26 26 23 19 19 13 16 13 10 6 0 0 3 0 0 3 3 10 13 3 3 6 13 16 0 13 10 13 13 13 23 19 10 10 6 16 16 16
23 19 26 19 19 16 23 13 13 13 16 13 10 3 0 0 0 0 3 0 3 3 3 0 0 3 6 10 10 0 0 0 0 6 13 10 6 10 10 10 6 13 19
23 16 19 19 19 23 19 10 10 10 10 6 3 0 0 0 0 0 0 3 0 3 0 3 3 0 0 10 13 10 0 0 0 0 0 0 3 6 6 6 6 10 13
19 16 10 13 13 13 16 16 13 10 10 6 6 6 3 0 0 0 0 0 0 0 0 0 0 0 0 0 3 0 0 0 0 0 0 0 0 0 6 6 10 6 6
16 10 6 13 10 16 16 13 10 10 6 6 6 6 6 6 6 6 3 3 3 3 0 0 0 0 0 0 0 0 0 0 0 0 0 0 0 0 0 3 6 6 6
6 13 10 6 3 3 3 3 3 6 3 3 3 3 6 3 3 3 3 0 0 0 0 0 0 0 0 0 0 0 0 0 0 0 0 0 0 0 0 0 0 0 0
10 6 6 10 3 3 3 3 6 6 6 3 3 3 3 0 0 0 0 0 0 0 0 0 0 0 0 0 0 0 0 0 0 0 0 0 0 0 0 0 0 0 0
6 6 6 3 3 3 3 3 6 10 6 6 6 0 0 0 0 0 0 0 0 0 0 3 0 0 0 0 0 0 0 0 0 0 0 0 0 0 0 0 0 0 0
6 6 3 3 3 3 3 3 6 6 6 6 3 0 0 0 3 0 0 0 0 0 0 0 0 0 0 0 0 0 0 0 0 0 0 0 0 0 0 0 0 0 0
3 3 3 3 3 0 3 3 3 6 3 3 3 0 0 0 0 0 0 0 0 0 0 0 0 0 0 0 0 3 0 0 0 0 0 0 0 0 0 0 0 0 0
3 0 0 0 0 0 0 3 3 3 3 3 0 0 0 0 0 3 0 3 6 0 0 0 0 0 0 0 0 0 0 0 0 0 0 0 0 0 0 0 0 0 0
3 3 0 0 0 0 0 0 3 3 3 3 0 0 0 0 0 0 0 3 3 0 0 0 0 0 0 0 0 0 0 0 0 0 0 0 0 0 0 0 0 0 0
3 3 0 0 0 0 0 0 3 0 3 3 3 0 0 0 0 0 0 0 0 3 3 3 0 0 0 0 0 0 0 0 0 0 0 0 0 3 0 0 0 0 0
3 3 0 0 0 0 0 0 0 3 3 3 0 0 0 0 0 0 0 0 0 0 0 0 0 0 0 0 0 0 0 0 0 0 0 0 0 3 3 0 0 0 0
3 0 0 0 0 0 0 0 0 0 3 0 0 0 0 0 0 0 0 0 0 0 0 0 0 0 0 0 0 0 0 0 0 0 0 0 0 0 3 0 0 0 0
0 0 3 3 0 0 0 0 0 0 0 0 0 0 0 0 0 0 0 0 0 0 0 0 0 0 0 0 3 0 0 0 0 3 0 0 0 0 0 0 0 0 0
0 3 0 0 0 0 0 0 0 0 0 0 0 0 0 0 0 0 0 0 0 0 0 0 0 0 0 0 0 0 0 0 0 0 0 0 0 0 0 0 0 0 0
0 0 0 0 0 0 0 0 0 0 0 0 0 0 0 0 0 0 0 0 0 0 0 0 0 0 0 0 0 0 3 0 0 0 0 0 0 3 0 0 0 0 0

GEFSMA_con_cape1000_174.txt.gz
Probability
68 58 65 58 58 55 48 45 42 42 35 29 23 23 29 29 26 26 48 65 58 55 55 58 61 58 58 61 74 71 74 77 74 71 77 71 71 81 84 84 87 87 84
61 68 65 61 48 45 42 39 32 35 26 26 26 23 26 19 26 29 26 39 48 45 48 48 52 55 58 55 61 68 68 65 68 74 68 71 68 68 84 84 84 84 84
61 58 61 52 52 48 42 39 32 29 26 26 26 26 26 26 23 29 23 35 29 39 45 52 52 52 52 48 52 52 52 58 58 55 65 55 65 68 71 74 74 71 68
55 55 55 52 48 45 35 32 35 26 23 19 29 29 23 29 26 29 23 35 35 23 32 39 45 45 45 45 48 48 52 52 52 52 45 48 48 45 61 61 58 52 58
55 52 52 48 45 42 35 16 23 29 19 16 13 19 23 23 23 19 23 23 26 26 19 19 35 45 39 39 42 42 42 42 48 45 52 42 52 39 35 39 39 42 42
42 39 42 39 35 29 35 29 23 26 16 16 10 10 16 23 26 19 16 19 23 23 16 10 13 23 26 29 32 35 39 39 45 45 48 52 39 42 35 32 32 35 32
45 35 32 29 29 29 29 23 13 16 13 13 10 10 10 16 13 16 19 16 16 6 6 10 10 16 10 19 19 23 23 29 35 32 39 39 29 26 32 29 19 23 23
45 23 29 29 29 32 29 19 23 19 16 13 10 3 3 6 13 0 6 3 3 3 3 3 3 6 10 10 6 16 19 23 26 32 29 35 29 26 26 26 26 23 16
23 26 26 29 29 29 23 23 23 19 19 16 13 6 3 3 10 6 0 0 0 0 0 0 3 6 3 6 10 10 16 16 19 26 23 19 13 23 19 23 26 19 13
23 23 23 19 23 29 29 19 10 16 10 6 10 10 6 6 6 0 3 0 3 0 0 0 0 0 6 6 3 0 0 0 6 10 10 10 10 10 10 16 13 19 19
23 23 23 19 19 23 26 13 16 13 10 6 3 6 10 6 10 3 0 0 0 0 3 0 0 0 0 3 3 3 0 0 0 0 6 6 6 6 6 6 6 13 16
23 23 19 19 23 23 19 13 16 13 10 10 10 10 6 6 3 6 3 0 0 0 0 0 0 0 0 0 0 0 0 0 0 0 0 3 3 3 3 6 6 6 6
23 26 26 23 26 23 10 10 10 13 10 10 10 13 16 6 6 3 6 3 0 0 0 0 0 0 0 0 0 0 0 0 0 0 0 0 0 3 3 3 3 6 6
16 16 23 23 19 13 6 10 10 10 6 6 6 10 6 10 10 3 6 3 0 0 0 0 0 0 0 0 0 0 0 0 0 0 0 0 0 0 0 0 0 0 3
16 16 19 19 16 6 3 6 3 6 6 6 6 6 3 3 3 3 6 3 0 0 0 3 0 0 0 0 0 0 0 0 0 0 0 0 0 0 0 0 0 0 0
19 16 13 13 6 3 3 3 3 3 3 6 10 3 3 3 3 3 3 6 3 0 0 0 0 0 0 0 0 0 0 0 0 0 0 0 0 0 0 0 0 0 0
16 10 6 3 3 0 0 0 0 0 0 3 3 3 0 3 3 3 0 3 6 0 0 0 0 0 0 0 0 0 0 0 0 0 0 0 0 0 0 0 0 0 0
13 10 3 3 0 0 0 0 0 0 0 0 0 0 3 3 3 0 0 0 6 0 0 0 0 0 0 0 0 0 0 0 0 0 0 0 0 0 0 0 0 0 0
6 3 3 0 0 0 0 0 0 0 0 0 3 0 0 0 0 3 3 3 0 0 0 0 0 0 0 0 0 0 0 0 0 0 0 0 0 0 0 0 0 0 0
3 0 0 0 0 0 0 0 0 0 0 0 3 0 0 0 0 0 0 0 0 0 0 0 0 0 0 0 0 0 0 0 0 0 0 0 0 0 0 0 0 0 0
0 3 0 0 0 0 0 0 0 0 0 0 0 0 0 0 0 0 0 0 0 0 0 0 0 0 0 0 0 0 0 0 0 0 0 0 0 0 0 0 0 0 0
6 3 0 0 0 0 0 0 0 0 0 0 0 0 0 0 0 0 0 0 0 0 0 0 0 0 0 0 0 0 0 0 0 0 0 0 0 0 0 0 0 0 0
6 0 0 0 0 0 0 0 0 0 0 0 0 0 0 0 0 0 0 0 0 0 0 0 0 0 0 0 0 0 0 0 0 0 0 0 0 0 0 0 0 0 0
3 0 0 0 0 0 0 0 0 0 0 0 0 0 0 0 0 0 0 0 0 0 0 0 0 0 0 0 0 0 0 0 0 0 0 0 0 0 0 0 0 0 0
10 6 3 0 0 0 0 0 0 0 0 0 0 0 0 0 0 0 0 0 0 0 0 0 0 0 0 0 0 0 0 0 0 0 0 0 0 0 0 0 0 0 0
6 6 3 0 0 0 0 0 0 0 0 0 0 0 0 0 0 0 0 0 0 0 0 0 0 0 0 0 0 0 0 0 0 0 0 0 0 0 0 0 0 0 0

GEFSMA_con_cape1000_180.txt.gz
Probability
10 6 10 6 3 10 10 13 10 10 10 10 10 3 3 3 3 0 0 26 35 45 48 58 55 52 52 55 58 71 71 74 74 77 74 77 81 74 77 81 81 87 87
13 10 6 6 10 10 6 13 13 13 6 6 3 0 0 0 0 0 0 6 32 42 45 39 42 42 52 48 48 55 68 74 71 74 71 74 77 74 74 71 74 81 84
10 10 10 10 10 10 10 3 3 3 3 3 0 0 0 0 0 0 0 0 3 29 35 35 32 39 45 48 42 45 55 55 61 71 65 65 71 61 65 68 68 71 71
19 16 10 10 10 3 3 3 3 3 3 3 3 3 3 0 0 0 0 0 0 0 6 26 26 32 35 42 45 45 52 48 52 52 61 58 68 65 55 52 55 58 52
19 16 16 10 6 3 3 6 6 3 3 3 3 3 0 0 0 0 0 0 0 0 0 3 16 23 26 29 42 42 35 39 42 52 48 52 55 55 39 42 55 52 52
19 19 13 10 6 3 3 3 3 0 0 0 3 3 0 0 0 0 0 0 0 0 0 0 0 3 16 32 35 35 35 39 39 42 48 52 42 35 26 29 32 35 35
16 16 16 10 6 3 3 0 0 0 0 0 0 0 0 0 0 0 0 0 0 0 0 0 0 0 0 6 23 29 29 26 32 29 35 45 48 35 26 23 19 23 26
13 13 13 10 10 6 3 0 0 0 0 0 0 0 0 0 0 0 0 0 0 0 0 0 0 0 0 0 0 10 16 16 16 23 26 32 35 23 23 23 23 19 16
16 13 13 10 6 3 0 0 0 0 0 0 0 0 0 0 0 0 0 0 0 0 0 0 0 0 0 0 0 0 6 0 10 16 23 23 23 19 23 23 26 16 16
13 13 13 10 3 0 0 0 0 0 0 0 0 0 0 0 0 0 0 0 0 0 0 0 0 0 0 0 0 0 0 0 0 13 16 23 23 23 23 16 13 10 13
13 13 10 6 0 0 0 0 0 0 0 0 0 0 0 0 0 0 0 0 0 0 0 0 0 0 0 0 0 0 0 0 0 0 3 13 16 16 16 13 10 10 10
6 6 3 3 3 0 0 0 0 0 0 0 0 0 0 0 0 0 0 0 0 0 0 0 0 0 0 0 0 0 0 0 0 0 0 0 10 13 16 13 6 6 10
3 3 3 0 0 0 0 0 0 0 0 0 0 0 0 0 0 0 0 0 0 0 0 0 0 0 0 0 0 0 0 0 0 0 0 0 0 0 3 3 6 3 6
3 3 3 0 0 0 0 0 0 0 0 0 0 0 0 0 0 0 0 0 0 0 0 0 0 0 0 0 0 0 0 0 0 0 0 0 0 0 0 0 0 0 0
3 3 0 0 0 0 0 0 0 0 0 0 0 0 0 0 0 0 0 0 0 0 0 0 0 0 0 0 0 0 0 0 0 0 0 0 0 0 0 0 0 0 0
0 0 0 0 0 0 0 0 0 0 0 0 0 0 0 0 0 0 0 0 0 0 0 0 0 0 0 0 0 0 0 0 0 0 0 0 0 0 0 0 0 0 0
0 0 0 0 0 0 0 0 0 0 0 0 0 0 0 0 0 0 0 0 0 0 0 0 0 0 0 0 0 0 0 0 0 0 0 0 0 0 0 0 0 0 0
0 0 0 0 0 0 0 0 0 0 0 0 0 0 0 0 0 0 0 0 0 0 0 0 0 0 0 0 0 0 0 0 0 0 0 0 0 0 0 0 0 0 0
0 0 0 0 0 0 0 0 0 0 0 0 0 0 0 0 0 0 0 0 0 0 0 0 0 0 0 0 0 0 0 0 0 0 0 0 0 0 0 0 0 0 0
0 0 0 0 0 0 0 0 0 0 0 0 0 0 0 0 0 0 0 0 0 0 0 0 0 0 0 0 0 0 0 0 0 0 0 0 0 0 0 0 0 0 0
0 0 0 0 0 0 0 0 0 0 0 0 0 0 0 0 0 0 0 0 0 0 0 0 0 0 0 0 0 0 0 0 0 0 0 0 0 0 0 0 0 0 0
0 0 0 0 0 0 0 0 0 0 0 0 0 0 0 0 0 0 0 0 0 0 0 0 0 0 0 0 0 0 0 0 0 0 0 0 0 0 0 0 0 0 0
0 0 0 0 0 0 0 0 0 0 0 0 0 0 0 0 0 0 0 0 0 0 0 0 0 0 0 0 0 0 0 0 0 0 0 0 0 0 0 0 0 0 0
0 0 0 0 0 0 0 0 0 0 0 0 0 0 0 0 0 0 0 0 0 0 0 0 0 0 0 0 0 0 0 0 0 0 0 0 0 0 0 0 0 0 0
0 0 0 0 0 0 0 0 0 0 0 0 0 0 0 0 0 0 0 0 0 0 0 0 0 0 0 0 0 0 0 0 0 0 0 0 0 0 0 0 0 0 0
0 0 0 0 0 0 0 0 0 0 0 0 0 0 0 0 0 0 0 0 0 0 0 0 0 0 0 0 0 0 0 0 0 0 0 0 0 0 0 0 0 0 0

GEFSMA_con_cape1000_186.txt.gz
Probability
26 16 13 13 13 13 16 19 19 16 16 13 13 13 13 10 6 10 3 13 45 39 39 48 55 52 58 61 58 58 61 65 61 61 61 71 74 77 74 77 81 81 90
23 13 13 13 10 13 13 10 10 10 13 13 13 13 13 6 6 6 3 3 13 26 26 39 42 42 45 48 52 48 55 55 45 48 52 65 68 68 71 74 68 68 77
13 10 10 6 6 6 6 6 3 3 6 3 6 10 3 3 3 6 6 3 3 10 26 29 42 42 42 39 39 32 45 45 48 48 58 55 55 65 61 65 68 58 68
10 10 3 3 6 6 6 3 0 0 0 0 0 0 3 3 3 3 3 3 3 0 0 19 23 35 35 32 32 26 32 32 35 48 39 48 48 52 48 58 55 55 48
10 3 6 3 6 6 3 3 6 0 0 0 0 0 0 0 0 0 0 3 3 0 0 0 13 19 16 23 26 26 26 32 35 39 35 32 35 39 29 29 39 32 35
6 6 6 10 6 6 6 3 3 0 0 0 0 0 0 0 3 3 3 3 3 0 0 0 0 6 16 19 23 26 23 35 23 26 26 29 35 35 26 23 23 23 23
10 6 6 3 3 3 3 0 0 0 0 0 0 0 0 0 0 0 0 0 0 0 0 0 0 0 6 13 16 13 23 16 13 19 23 29 29 23 26 23 16 16 13
10 13 10 3 3 3 0 0 0 0 0 0 0 0 0 0 0 0 0 0 0 0 0 0 0 0 0 0 0 6 10 6 13 13 19 23 19 19 23 19 19 13 13
10 10 6 3 0 0 0 0 0 0 0 0 0 0 0 0 0 0 0 0 0 0 0 0 0 0 0 0 0 0 3 0 6 13 19 26 29 23 23 16 16 16 13
6 6 6 0 0 0 0 0 0 0 0 0 0 0 0 0 0 0 0 0 0 0 0 0 0 0 0 0 0 0 0 0 0 6 13 19 19 19 19 16 19 16 13
3 3 3 3 0 0 0 0 0 0 0 0 0 0 0 0 0 0 0 0 0 0 0 0 0 0 0 0 0 0 0 0 0 0 3 6 10 10 13 13 13 16 13
0 0 3 3 3 0 0 0 0 0 0 0 0 0 0 0 0 0 0 0 0 0 0 0 0 0 0 0 0 0 0 0 0 0 0 0 3 10 13 13 13 13 16
0 0 3 3 3 0 0 0 0 0 0 0 0 0 0 0 0 0 0 0 0 0 0 0 0 0 0 0 0 0 0 0 0 0 0 0 0 0 0 3 10 10 10
3 0 0 3 3 0 0 0 0 0 0 0 0 0 0 0 0 0 0 0 0 0 0 0 0 0 0 0 0 0 0 0 0 0 0 0 0 0 0 0 0 0 0
3 0 0 3 3 0 0 0 0 0 0 0 0 0 0 0 0 0 0 0 0 0 0 0 0 0 0 0 0 0 0 0 0 0 0 0 0 0 0 0 0 0 0
3 3 0 3 3 0 0 0 0 0 0 0 0 0 0 0 0 0 0 0 0 0 0 0 0 0 0 0 0 0 0 0 0 0 0 0 0 0 0 0 0 0 0
3 3 3 3 3 0 0 0 0 0 0 0 0 0 0 0 0 0 0 0 0 0 0 0 0 0 0 0 0 0 0 0 0 0 0 0 0 0 0 0 0 0 0
3 3 3 3 0 0 0 0 0 0 0 0 0 0 0 0 0 0 0 0 0 0 0 0 0 0 0 0 0 0 0 0 0 0 0 0 0 0 0 0 0 0 0
0 3 3 3 0 0 0 0 0 0 0 0 0 0 0 0 0 0 0 0 0 0 0 0 0 0 0 0 0 0 0 0 0 0 0 0 0 0 0 0 0 0 0
3 3 3 3 0 0 0 0 0 0 0 0 0 0 0 0 0 0 0 0 0 0 0 0 0 0 0 0 0 0 0 0 0 0 0 0 0 0 0 0 0 0 0
0 0 0 0 0 0 0 0 0 0 0 0 0 0 0 0 0 0 0 0 0 0 0 0 0 0 0 0 0 0 0 0 0 0 0 0 0 0 0 0 0 0 0
0 0 0 0 0 0 0 0 0 0 0 0 0 0 0 0 0 0 0 0 0 0 0 0 0 0 0 0 0 0 0 0 0 0 0 0 0 0 0 0 0 0 0
0 0 0 0 0 0 0 0 0 0 0 0 0 0 0 0 0 0 0 0 0 0 0 0 0 0 0 0 0 0 0 0 0 0 0 0 0 0 0 0 0 0 0
0 0 0 0 0 0 0 0 0 0 0 0 0 0 0 0 0 0 0 0 0 0 0 0 0 0 0 0 0 0 0 0 0 0 0 0 0 0 0 0 0 0 0
0 0 0 0 0 0 0 0 0 0 0 0 0 0 0 0 0 0 0 0 0 0 0 0 0 0 0 0 0 0 0 0 0 0 0 0 0 0 0 0 0 0 0
0 0 0 0 0 0 0 0 0 0 0 0 0 0 0 0 0 0 0 0 0 0 0 0 0 0 0 0 0 0 0 0 0 0 0 0 0 0 0 0 0 0 0

GEFSMA_con_cape1000_192.txt.gz
Probability
58 52 52 58 48 48 42 45 45 45 45 32 29 23 26 26 23 16 35 32 32 32 32 32 42 42 52 55 58 55 55 52 45 48 58 58 61 68 68 74 81 77 68
58 55 48 45 39 29 39 39 39 48 42 42 35 32 26 32 26 23 23 23 26 29 29 29 39 32 39 45 52 55 55 42 42 48 45 58 65 61 65 71 74 81 74
48 45 48 52 42 35 42 42 42 42 39 35 35 35 32 29 23 26 16 19 19 19 29 29 29 32 39 35 42 48 48 42 39 35 35 39 42 48 55 55 65 71 68
39 42 52 52 52 48 45 45 42 39 32 39 35 23 23 29 26 26 19 16 16 10 19 29 32 32 26 26 29 42 42 35 35 29 32 35 35 45 45 42 52 58 58
42 42 42 45 45 48 39 35 45 35 32 32 29 26 26 26 26 16 16 13 16 19 19 26 26 23 19 16 26 29 35 42 39 32 26 29 35 35 35 35 39 45 45
45 42 39 39 35 29 32 32 32 39 39 29 10 13 13 16 16 13 16 16 19 16 16 13 13 13 19 19 23 23 29 35 39 32 29 26 26 29 32 26 29 32 29
45 42 32 35 35 29 29 26 32 32 35 23 16 13 6 3 13 19 23 23 16 13 19 16 16 13 13 19 23 23 19 26 32 29 26 19 23 23 23 19 19 16 13
29 26 32 32 32 32 32 29 32 29 19 16 16 6 3 6 13 0 13 6 10 19 10 13 13 13 10 13 6 16 23 23 23 29 29 16 16 16 16 16 13 10 6
29 35 29 29 29 26 29 29 29 26 10 16 16 10 3 6 6 6 10 3 10 16 6 6 13 13 13 10 10 3 10 0 19 19 29 13 13 13 13 13 13 10 10
19 26 29 26 26 26 23 26 26 26 19 16 16 16 13 6 3 6 10 10 10 10 0 0 0 3 10 10 13 3 0 0 0 10 16 16 6 16 13 10 6 10 10
19 19 23 19 23 23 23 23 23 26 23 19 13 10 10 10 3 3 0 3 6 10 3 3 3 3 3 6 10 3 0 0 0 0 3 3 6 6 10 13 6 6 6
19 19 19 19 16 16 19 23 23 23 29 19 16 16 6 6 3 3 3 3 3 3 6 10 3 6 10 6 0 0 0 0 0 0 0 0 0 3 0 6 6 6 10
19 19 19 19 23 16 19 19 23 19 19 13 13 16 13 10 6 6 3 3 3 3 3 10 0 10 6 10 6 0 0 0 0 0 0 0 0 0 0 0 3 6 3
19 19 19 19 16 16 16 16 23 19 19 13 6 13 16 13 16 10 3 0 0 3 0 3 6 3 10 10 0 0 0 0 0 0 0 0 0 0 0 0 0 0 0
16 16 16 19 13 13 16 16 13 16 16 16 6 6 6 19 16 13 3 0 0 3 3 0 0 0 6 3 0 0 0 0 0 0 0 0 0 0 0 0 0 0 0
13 10 19 16 13 13 16 16 13 16 16 13 13 3 3 6 6 10 3 6 3 0 0 0 0 0 0 0 0 0 0 0 0 0 0 0 0 0 0 0 0 0 0
16 13 13 13 13 13 13 13 13 13 10 3 3 0 3 3 0 0 0 0 0 0 0 0 0 0 0 0 0 0 0 0 0 0 0 0 0 0 0 0 0 0 0
13 10 13 13 13 13 13 13 6 3 3 0 0 0 0 0 0 0 0 0 0 0 0 0 0 0 0 0 0 0 0 0 0 0 0 0 0 0 0 0 0 0 0
10 6 6 13 13 13 13 10 3 0 0 0 0 0 0 0 0 0 0 0 0 0 0 0 0 0 0 0 0 0 0 0 0 0 0 0 0 0 0 0 0 0 0
6 3 6 10 10 6 3 6 0 0 0 0 0 0 0 0 0 0 0 0 0 0 0 0 0 0 0 0 0 0 0 0 0 0 0 0 0 0 0 0 0 0 0
3 3 3 10 6 3 0 0 0 0 0 0 0 0 0 0 0 0 0 0 0 3 0 0 0 0 3 3 0 0 0 3 3 3 3 3 0 3 0 0 0 0 0
3 0 3 3 3 0 0 0 0 0 0 0 0 0 0 0 0 0 0 0 0 0 0 0 0 0 0 0 3 0 3 3 3 6 3 3 3 3 3 3 0 0 0
0 0 3 3 3 3 0 0 0 0 0 3 3 3 0 0 0 0 0 0 0 0 0 0 0 0 0 0 3 3 3 3 3 3 3 3 6 3 3 0 0 0 0
6 6 3 3 3 0 0 0 0 0 0 0 3 3 3 0 0 0 0 0 0 0 0 0 0 0 0 3 3 3 3 3 6 3 3 3 0 3 0 0 0 0 0
6 6 3 0 0 0 0 0 0 0 0 0 0 0 0 0 0 0 0 0 0 0 0 0 0 0 0 0 0 3 3 3 3 3 0 3 3 0 3 0 0 0 0
6 3 0 0 0 3 0 0 0 0 0 3 0 0 0 0 0 0 0 0 0 0 0 0 0 0 0 0 0 0 0 3 0 0 3 0 3 0 0 0 0 0 0

GEFSMA_con_cape1000_198.txt.gz
Probability
61 61 58 68 55 55 52 48 39 42 45 39 32 32 26 23 26 23 23 45 42 42 48 48 48 48 52 58 61 65 61 65 61 55 65 71 58 55 55 58 58 65 65
58 58 61 68 55 52 52 45 42 39 42 42 39 32 35 29 29 23 19 19 42 45 48 48 45 42 39 45 58 55 61 61 61 55 45 48 61 61 58 52 55 55 61
55 61 55 55 48 45 48 48 45 42 45 35 35 29 29 32 26 26 13 10 16 29 39 45 39 39 39 39 35 52 52 55 45 42 39 42 48 55 61 55 48 55 52
48 48 45 42 48 42 45 45 35 35 32 29 29 29 26 26 29 16 10 13 13 6 29 32 29 32 32 35 32 32 39 42 48 42 39 32 35 42 55 52 48 45 45
35 35 39 42 45 39 42 29 35 32 32 29 29 26 26 23 16 10 10 6 6 13 16 16 29 29 32 32 29 26 29 35 42 48 48 39 29 32 39 39 26 32 35
35 42 39 39 42 42 42 35 32 32 29 26 13 16 6 16 16 13 3 3 10 6 10 3 6 6 23 26 32 29 23 26 35 39 39 39 29 26 29 26 26 26 26
39 39 35 39 39 42 42 32 26 23 23 19 16 10 6 6 6 10 6 3 6 10 10 6 3 3 6 10 19 26 23 19 26 32 35 39 32 19 19 19 19 19 16
29 26 35 35 32 32 29 26 26 23 23 23 13 10 6 6 6 3 3 6 3 6 6 3 3 3 6 3 0 13 19 16 16 16 26 29 23 19 16 16 16 16 13
26 29 26 29 35 35 32 26 26 16 19 19 16 10 6 6 10 10 6 0 0 3 3 3 3 6 3 3 3 6 13 10 13 16 23 23 23 19 19 16 13 10 10
23 26 26 26 29 32 32 29 26 19 16 10 16 10 10 6 6 6 6 3 3 3 0 0 3 3 3 3 6 0 3 3 10 16 19 19 16 16 16 13 13 10 13
26 19 23 23 26 26 23 26 23 19 16 13 16 13 6 6 6 6 0 6 6 3 10 6 3 6 3 3 3 0 0 0 0 10 10 16 13 6 10 13 13 13 13
32 26 26 29 26 29 19 23 19 16 16 16 13 13 13 10 6 3 3 3 3 3 6 3 6 3 3 3 3 0 0 0 0 0 0 6 6 6 6 10 16 13 10
32 32 23 26 29 19 19 19 23 16 16 10 13 10 10 13 10 3 3 0 0 3 6 3 3 6 3 3 3 0 0 0 0 0 0 0 0 3 3 3 3 6 10
19 23 26 26 23 23 16 19 16 13 13 13 6 10 10 6 10 10 0 0 0 0 0 0 0 3 0 3 0 0 0 0 0 0 0 0 0 0 3 0 0 0 0
19 19 19 13 16 13 16 16 13 16 10 10 6 13 13 10 13 10 10 3 0 0 0 0 0 3 0 0 0 0 0 0 0 0 0 0 0 0 0 0 0 0 0
16 16 16 16 13 13 13 16 13 13 10 10 6 16 13 13 10 10 3 0 0 0 0 0 0 0 0 0 0 0 0 0 0 0 0 0 0 0 0 0 0 0 0
16 19 23 16 16 10 10 6 10 10 10 10 6 10 13 10 3 3 3 3 0 0 0 0 0 0 0 0 0 0 0 0 0 0 0 0 0 0 0 0 0 0 0
16 16 19 16 13 13 6 6 6 6 10 10 0 3 3 3 3 3 3 3 0 0 0 0 0 0 0 0 0 0 0 0 0 0 0 0 0 0 0 0 0 0 0
16 10 16 10 10 10 10 6 6 6 3 0 3 3 3 0 0 0 0 0 0 0 0 0 0 0 0 0 3 0 0 0 0 0 0 0 0 0 0 0 0 0 0
10 6 13 13 13 13 10 6 0 0 0 0 0 0 0 0 0 0 0 0 0 0 0 0 0 0 0 0 0 0 0 0 0 0 0 0 0 0 0 0 0 0 0
3 6 13 13 10 6 3 0 0 0 0 0 0 0 0 0 0 0 0 0 0 0 0 0 0 0 0 0 0 0 0 0 0 0 0 0 0 0 0 0 0 0 0
6 10 10 13 6 0 0 0 0 0 0 0 0 3 0 0 0 0 0 0 0 0 0 0 0 0 0 0 0 0 0 0 0 0 0 0 0 0 0 0 0 0 0
10 10 10 3 0 0 0 0 0 0 0 3 3 0 0 0 0 0 0 0 0 0 0 0 0 0 0 0 0 0 0 0 0 0 0 0 0 0 0 0 0 0 0
10 10 6 3 3 0 0 0 0 0 0 0 0 3 3 3 0 0 0 0 0 0 0 0 0 0 0 0 0 0 0 0 0 3 0 0 0 0 0 0 0 0 0
13 16 10 3 6 0 0 0 0 0 0 0 0 0 3 3 0 0 0 0 0 0 0 0 0 0 0 0 0 0 0 0 0 0 3 0 0 0 0 0 0 0 0
6 6 3 6 3 6 0 0 0 0 0 0 3 3 0 0 0 0 0 0 0 0 0 0 0 0 0 0 0 0 3 0 0 0 0 0 0 0 0 0 0 0 0

GEFSMA_con_cape1000_204.txt.gz
Probability
23 19 19 16 16 19 19 16 19 19 16 16 16 16 13 13 16 13 6 35 42 48 45 52 55 55 58 68 55 65 68 65 68 65 65 65 71 74 68 68 58 61 65
16 16 13 13 16 16 23 16 16 16 10 10 10 3 6 6 6 3 3 13 39 42 42 45 48 45 42 45 55 58 55 58 61 65 61 58 68 65 68 74 58 45 48
13 16 13 16 13 16 13 13 13 6 6 6 3 3 6 6 6 0 3 3 10 23 32 35 39 42 35 42 42 42 48 52 55 58 58 61 61 65 61 58 55 52 45
16 13 13 10 13 16 13 10 10 6 3 0 3 0 3 3 3 0 0 0 0 0 10 26 29 32 32 29 23 35 35 42 42 42 52 52 55 58 48 45 39 45 32
19 16 13 10 10 16 16 16 6 6 6 0 0 0 0 0 0 0 0 0 0 0 0 3 19 23 29 26 16 23 29 35 35 39 45 42 39 32 39 32 32 39 32
19 16 16 10 10 13 13 10 3 3 3 0 3 0 0 0 0 0 0 0 0 0 0 0 3 6 23 26 23 26 19 23 23 26 32 32 29 29 26 29 26 29 32
19 16 16 13 10 13 13 10 6 3 3 0 0 0 0 0 0 0 0 0 0 0 0 0 0 0 0 13 13 16 19 13 19 19 26 29 29 19 13 10 19 23 26
13 19 10 16 13 10 10 6 3 3 3 0 0 0 0 0 0 0 0 0 0 0 0 0 0 0 0 0 0 3 13 10 10 10 19 19 26 23 16 16 10 16 16
16 19 16 16 13 13 3 3 3 3 3 0 0 0 0 0 0 0 0 0 0 0 0 0 0 0 0 0 0 0 3 0 6 10 10 13 16 16 13 13 10 13 6
10 10 16 16 10 6 3 3 3 3 0 0 0 0 0 0 0 0 0 0 0 0 0 0 0 0 0 0 0 0 0 0 0 6 10 10 10 13 10 6 13 13 13
10 10 10 16 10 13 13 6 3 3 3 0 0 0 0 0 0 0 0 0 0 0 0 0 0 0 0 0 0 0 0 0 0 0 0 6 6 10 6 10 6 10 10
10 10 10 10 13 10 10 6 6 3 3 0 0 0 0 0 0 0 0 0 0 0 0 0 0 0 0 0 0 0 0 0 0 0 0 0 6 3 6 6 10 6 10
10 10 10 10 6 6 6 6 6 0 0 3 0 0 0 0 0 0 0 0 0 0 0 0 0 0 0 0 0 0 0 0 0 0 0 0 0 3 3 3 3 6 6
3 3 3 3 3 6 6 6 3 3 0 0 0 0 0 0 0 0 0 0 0 0 0 0 0 0 0 0 0 0 0 0 0 0 0 0 0 0 0 0 0 0 0
3 3 3 3 3 6 6 6 6 6 3 0 0 0 0 0 0 0 0 0 0 0 0 0 0 0 0 0 0 0 0 0 0 0 0 0 0 0 0 0 0 0 0
3 3 3 3 3 3 6 6 3 3 3 3 0 0 0 0 0 0 0 0 0 0 0 0 0 0 0 0 0 0 0 0 0 0 0 0 0 0 0 0 0 0 0
3 3 3 3 3 3 3 6 3 3 3 0 0 0 0 0 0 0 0 0 0 0 0 0 0 0 0 0 0 0 0 0 0 0 0 0 0 0 0 0 0 0 0
3 3 3 3 3 3 3 3 6 6 3 0 0 0 0 0 0 0 0 0 0 0 0 0 0 0 0 0 0 0 0 0 0 0 0 0 0 0 0 0 0 0 0
3 3 3 3 3 3 3 0 0 0 0 0 0 0 0 0 0 0 0 0 0 0 0 0 0 0 0 0 0 0 0 0 0 0 0 0 0 0 0 0 0 0 0
3 3 3 3 3 3 3 3 0 0 0 0 0 0 0 0 0 0 0 0 0 0 0 0 0 0 0 0 0 0 0 0 0 0 0 0 0 0 0 0 0 0 0
3 3 0 0 0 3 3 0 0 0 0 0 0 0 0 0 0 0 0 0 0 0 0 0 0 0 0 0 0 0 0 0 0 0 0 0 0 0 0 0 0 0 0
0 0 0 0 0 3 0 0 0 0 0 0 0 0 0 0 0 0 0 0 0 0 0 0 0 0 0 0 0 0 0 0 0 0 0 0 0 0 0 0 0 0 0
0 0 0 0 0 0 0 0 0 0 0 0 0 0 0 0 0 0 0 0 0 0 0 0 0 0 0 0 0 0 0 0 0 0 0 0 0 0 0 0 0 0 0
0 0 0 0 0 0 0 0 0 0 0 0 0 0 0 0 0 0 0 0 0 0 0 0 0 0 0 0 0 0 0 0 0 0 0 0 0 0 0 0 0 0 0
0 0 0 0 0 0 0 0 0 0 0 0 0 0 0 0 0 0 0 0 0 0 0 0 0 0 0 0 0 0 0 0 0 0 0 0 0 0 0 0 0 0 0
0 0 0 0 0 0 0 0 0 0 0 0 0 0 0 0 0 0 0 0 0 0 0 0 0 0 0 0 0 0 0 0 0 0 0 0 0 0 0 0 0 0 0

GEFSMA_con_cape1000_210.txt.gz
Probability
13 13 16 16 19 19 16 19 23 23 19 16 16 13 13 13 13 13 16 26 32 39 39 45 45 45 58 58 61 55 58 65 65 65 65 65 68 68 74 71 74 77 71
10 10 16 13 13 10 13 13 19 19 16 16 16 19 13 10 10 3 10 13 26 39 39 42 42 42 45 48 48 48 48 45 55 55 58 65 65 65 65 58 68 65 55
10 10 13 13 13 10 10 10 13 10 10 10 6 10 3 6 6 3 10 10 6 13 32 35 42 45 45 42 35 42 45 45 45 48 52 58 65 61 52 45 45 52 55
13 10 10 13 13 10 10 13 13 13 6 6 6 6 6 10 3 3 6 3 3 3 13 23 29 32 35 32 32 32 32 32 39 32 32 48 52 48 48 48 48 39 39
10 10 10 10 10 6 6 10 10 6 10 6 6 3 6 3 3 3 0 3 0 0 6 10 13 23 23 32 32 29 29 32 32 35 29 35 42 35 39 39 35 32 29
6 6 6 10 10 10 10 10 10 6 3 3 0 0 0 0 3 0 0 0 0 0 6 6 6 6 16 26 26 26 26 29 32 29 29 29 29 29 19 23 29 32 29
13 10 10 10 13 13 13 10 6 3 0 0 0 0 0 0 0 0 0 0 0 0 0 6 6 6 6 13 19 19 23 19 23 26 26 26 29 26 13 13 23 16 19
10 10 10 10 6 10 10 6 6 3 3 0 0 0 0 0 0 0 0 0 0 0 0 0 3 6 6 6 6 3 13 19 19 16 19 19 13 19 16 13 19 16 13
10 10 10 10 10 6 3 6 6 3 3 0 0 0 0 0 0 0 0 0 0 0 0 0 0 0 0 3 3 3 3 0 0 10 13 10 10 10 16 16 10 16 6
6 6 10 10 6 6 3 3 3 3 3 0 0 0 0 0 0 0 0 0 0 0 0 0 0 0 0 0 0 0 0 0 0 0 6 6 6 6 6 13 16 13 16
3 3 0 3 6 6 6 3 3 3 3 3 0 0 0 0 0 0 0 0 0 0 0 0 0 0 0 0 0 0 0 0 0 0 0 3 0 3 3 3 10 16 19
3 3 3 0 0 0 3 3 3 3 3 3 3 0 0 0 0 0 0 0 0 0 0 0 0 0 0 0 0 0 0 0 0 0 0 0 0 0 0 3 6 6 10
0 0 0 0 0 0 0 3 3 3 3 3 3 3 0 0 0 0 0 0 0 0 0 0 0 0 0 0 0 0 0 0 0 0 0 0 0 0 0 0 0 0 0
0 0 0 3 6 0 0 0 0 0 0 0 3 3 0 0 0 0 0 0 0 0 0 0 0 0 0 0 0 0 0 0 0 0 0 0 0 0 0 0 0 0 0
0 0 0 3 3 0 0 0 0 0 0 3 3 0 0 0 0 0 0 0 0 0 0 0 0 0 0 0 0 0 0 0 0 0 0 0 0 0 0 0 0 0 0
0 0 3 3 3 0 0 0 0 0 0 0 3 0 0 0 0 0 0 0 0 0 0 0 0 0 0 0 0 0 0 0 0 0 0 0 0 0 0 0 0 0 0
0 0 3 3 3 0 0 0 0 0 0 0 0 0 0 0 0 0 0 0 0 0 0 0 0 0 0 0 0 0 0 0 0 0 0 0 0 0 0 0 0 0 0
0 0 0 3 3 0 0 0 0 0 0 0 0 0 0 0 0 0 0 0 0 0 0 0 0 0 0 0 0 0 0 0 0 0 0 0 0 0 0 0 0 0 0
0 0 0 0 3 3 0 0 0 0 0 0 0 0 0 0 0 0 0 0 0 0 0 0 0 0 0 0 0 0 0 0 0 0 0 0 0 0 0 0 0 0 0
0 0 0 0 3 3 0 0 0 0 0 0 0 0 0 0 0 0 0 0 0 0 0 0 0 0 0 0 0 0 0 0 0 0 0 0 0 0 0 0 0 0 0
0 0 0 0 3 3 0 0 0 0 0 0 0 0 0 0 0 0 0 0 0 0 0 0 0 0 0 0 0 0 0 0 0 0 0 0 0 0 0 0 0 0 0
0 0 0 0 3 0 0 0 0 0 0 0 0 0 0 0 0 0 0 0 0 0 0 0 0 0 0 0 0 0 0 0 0 0 0 0 0 0 0 0 0 0 0
0 0 0 3 0 0 0 0 0 0 0 0 0 0 0 0 0 0 0 0 0 0 0 0 0 0 0 0 0 0 0 0 0 0 0 0 0 0 0 0 0 0 0
0 0 0 0 0 0 0 0 0 0 0 0 0 0 0 0 0 0 0 0 0 0 0 0 0 0 0 0 0 0 0 0 0 0 0 0 0 0 0 0 0 0 0
0 0 0 0 0 0 0 0 0 0 0 0 0 0 0 0 0 0 0 0 0 0 0 0 0 0 0 0 0 0 0 0 0 0 0 0 0 0 0 0 0 0 0
0 0 0 0 0 0 0 0 0 0 0 0 0 0 0 0 0 0 0 0 0 0 0 0 0 0 0 0 0 0 0 0 0 0 0 0 0 0 0 0 0 0 0

GEFSMA_con_cape1000_216.txt.gz
Probability
35 29 39 39 32 39 29 32 29 26 26 23 23 16 16 19 19 16 26 29 35 35 29 32 39 42 42 48 48 58 55 52 48 45 48 52 61 58 55 58 68 74 71
39 35 39 35 29 29 29 19 23 23 26 26 26 26 26 19 23 19 10 23 23 26 29 42 39 39 42 39 42 45 52 48 45 45 45 45 52 48 61 55 52 58 65
39 42 39 32 29 26 26 29 23 26 26 26 29 29 26 29 29 26 16 13 23 23 32 29 29 29 32 32 35 39 42 42 42 32 32 42 42 45 48 48 55 48 58
32 35 29 29 32 29 29 26 26 26 26 23 32 23 26 29 23 23 29 19 19 19 23 23 23 26 29 29 29 26 29 29 35 35 32 35 35 35 42 42 45 45 45
29 26 29 29 32 29 23 23 23 26 32 32 29 32 23 29 29 29 26 29 19 26 26 19 23 23 26 23 26 26 26 29 29 32 35 32 32 32 35 35 42 39 39
23 23 23 29 29 29 29 29 32 32 35 32 19 19 26 29 29 32 29 26 26 19 13 6 16 16 16 19 23 23 29 29 39 35 32 39 32 32 29 32 29 26 26
19 19 19 19 19 23 26 29 29 29 29 29 29 23 23 19 23 32 26 29 23 16 13 13 10 13 13 10 13 23 26 29 32 35 32 35 32 29 23 23 19 23 16
16 16 19 16 19 19 29 32 29 29 29 29 29 16 13 16 23 13 13 19 19 16 10 6 6 6 6 6 6 10 13 26 26 29 29 32 29 23 16 16 13 10 3
16 19 19 19 19 16 16 23 23 26 26 29 29 23 13 10 13 16 16 16 13 19 10 10 6 6 13 3 6 6 6 10 10 16 29 29 26 13 13 13 13 6 6
13 19 19 19 19 16 16 19 23 26 29 29 26 26 23 16 10 10 10 6 6 13 13 6 6 6 10 13 6 6 3 3 3 10 13 19 19 13 10 10 6 6 6
13 13 19 19 19 19 16 19 23 29 32 23 23 26 23 23 16 6 0 3 3 3 10 6 6 6 10 10 10 6 3 0 3 3 3 3 3 3 3 3 3 3 6
10 10 10 16 13 16 16 19 23 23 23 23 23 19 16 13 13 10 10 10 6 0 6 10 6 6 6 6 3 0 0 0 0 0 3 3 0 0 0 0 0 3 3
10 10 10 13 10 13 13 13 16 19 16 23 26 19 16 16 16 16 10 6 6 0 3 0 3 6 0 3 6 0 0 0 0 0 0 0 0 0 0 0 0 0 0
10 10 10 10 10 10 10 16 19 16 16 19 13 19 16 16 19 19 10 10 10 3 0 0 0 0 0 0 0 0 0 0 0 0 0 0 0 0 0 0 0 0 0
10 10 10 10 10 10 10 13 16 13 13 16 13 16 16 16 16 16 16 10 6 3 3 0 0 3 0 0 0 0 0 0 0 0 0 0 0 0 0 0 0 0 0
6 6 6 10 10 10 10 13 13 10 16 16 16 13 13 13 13 16 16 10 3 3 3 3 0 3 3 0 0 0 0 0 0 0 0 0 0 0 0 0 0 0 0
0 0 10 6 6 6 6 6 10 6 10 10 10 10 10 13 13 19 19 13 6 3 0 3 0 6 10 6 0 0 0 0 0 0 0 0 0 0 0 0 0 0 0
0 0 3 3 3 6 6 3 6 6 6 10 10 10 13 10 13 16 16 13 6 6 3 3 3 0 6 13 13 10 0 0 0 0 0 0 0 0 0 0 0 0 0
0 0 0 6 6 6 6 6 6 6 6 10 10 10 10 10 13 16 19 13 0 0 3 3 3 0 0 0 6 0 0 6 0 0 0 0 0 0 0 0 0 0 0
0 0 3 0 3 3 6 6 6 6 10 10 10 10 10 10 13 10 6 6 3 0 3 3 3 0 0 0 0 0 0 10 0 0 0 0 0 0 0 0 0 0 0
0 0 3 3 0 0 0 3 10 6 6 6 6 6 6 6 6 6 3 3 3 0 0 0 3 0 0 0 0 0 0 6 6 0 0 0 0 0 0 0 0 0 0
0 3 6 6 6 0 0 0 6 6 6 6 3 3 3 3 0 0 0 0 0 0 0 0 0 0 0 0 0 0 0 0 0 0 3 6 3 3 3 0 0 0 0
6 6 10 10 10 3 0 0 0 6 6 6 3 6 3 0 0 0 0 0 0 0 0 0 0 0 0 0 3 0 0 0 0 3 0 0 3 3 0 0 0 0 0
10 13 10 10 6 3 0 0 0 6 3 3 3 3 3 3 0 0 0 0 0 0 0 0 0 3 0 0 0 0 0 0 0 0 0 0 3 0 0 0 0 0 0
10 6 6 6 6 3 0 0 0 0 3 3 0 0 0 3 0 0 3 3 0 0 0 0 0 0 0 0 0 0 0 0 0 0 0 0 0 0 0 0 0 0 0
10 10 6 6 6 3 0 0 0 3 0 0 0 0 0 0 0 0 3 3 0 0 0 0 0 0 0 0 0 0 0 0 0 0 0 0 0 0 0 0 0 0 0

GEFSMA_con_cape1000_222.txt.gz
Probability
52 48 48 45 39 39 35 32 35 32 26 23 19 23 19 19 19 19 19 29 32 35 35 29 39 42 45 45 48 48 45 48 52 55 52 55 58 55 61 61 65 61 68
48 48 42 42 45 42 39 39 26 23 29 32 26 23 26 16 19 23 19 19 26 26 29 29 29 32 35 35 35 35 39 45 45 48 45 45 48 45 45 45 55 58 58
48 39 45 39 39 35 32 32 23 16 16 19 23 23 19 19 16 19 19 16 19 26 29 26 26 26 32 26 29 32 35 35 35 42 39 39 42 39 39 35 39 45 42
48 45 39 35 39 32 39 35 23 19 16 19 19 19 16 19 16 13 23 16 16 16 19 23 26 26 32 32 32 32 26 42 32 39 35 35 35 35 32 32 32 35 35
32 39 35 35 32 32 32 19 23 19 23 23 19 23 19 16 23 16 23 16 16 19 23 19 23 26 29 29 29 29 32 32 42 39 39 32 32 35 32 29 32 29 26
26 32 32 23 26 23 26 29 29 32 23 19 13 10 19 19 23 23 19 19 19 19 16 16 16 16 19 26 26 29 32 32 32 39 35 35 29 29 23 26 29 23 23
26 26 19 23 26 23 23 23 19 16 23 23 19 19 23 19 16 19 19 19 16 13 19 19 16 13 13 16 23 23 29 26 23 23 29 26 29 29 23 23 23 19 19
23 16 29 19 23 19 19 19 19 10 16 16 19 10 10 13 13 6 13 16 10 16 16 13 13 16 16 13 10 19 29 26 26 26 26 26 29 29 23 23 23 16 16
19 26 23 19 23 23 23 19 19 13 13 19 23 19 10 10 10 10 10 10 10 13 13 13 13 13 19 13 6 3 10 10 23 23 23 29 29 26 29 23 19 16 16
23 23 26 19 26 23 26 19 19 19 16 10 10 19 16 13 6 10 10 10 10 10 10 6 6 13 16 10 6 3 3 0 3 13 23 23 23 26 23 23 23 23 16
19 19 19 23 19 26 23 16 16 16 13 13 10 13 6 13 6 10 3 6 6 6 13 10 10 13 13 10 6 3 3 0 0 3 10 13 19 23 23 19 23 19 13
19 19 16 19 26 19 19 16 16 16 13 16 16 19 16 13 10 3 0 3 3 3 13 10 10 13 10 6 6 6 0 0 0 0 3 6 6 6 10 13 16 6 16
13 29 19 23 19 16 13 13 16 13 13 16 16 16 16 13 13 10 3 0 3 3 6 3 6 6 3 6 6 3 0 0 0 0 0 0 3 3 3 3 3 3 6
19 26 26 19 16 13 10 13 10 13 16 16 16 16 16 16 16 16 6 0 0 3 3 3 6 6 3 3 3 3 3 0 0 0 0 0 0 0 0 0 0 0 0
13 13 16 16 13 13 13 10 16 16 16 16 13 13 13 10 10 10 13 3 0 0 0 0 0 6 6 3 3 0 0 0 0 0 0 0 0 0 0 0 0 0 0
13 10 10 19 19 16 16 13 16 16 13 10 13 10 13 6 10 6 3 3 0 0 0 3 0 6 6 0 0 0 0 0 0 0 0 0 0 0 0 0 0 0 0
16 13 13 16 16 13 13 13 10 10 10 10 10 10 10 13 10 6 6 3 3 0 0 0 0 3 6 3 0 0 0 0 0 0 0 0 0 0 0 0 0 0 0
13 10 10 10 6 10 13 6 6 3 6 10 10 10 10 6 13 10 3 3 3 3 0 0 0 6 6 6 0 0 0 0 0 0 0 0 0 0 0 0 0 0 0
13 6 13 10 6 6 6 6 10 10 6 3 10 10 10 10 13 6 3 3 3 0 0 0 0 0 0 0 0 0 0 0 0 0 0 0 0 0 0 0 0 0 0
10 10 10 6 6 6 6 6 6 6 6 3 10 10 10 6 13 10 3 3 3 3 0 0 0 0 0 0 0 0 0 0 0 0 0 0 0 0 0 0 0 0 0
3 10 10 10 10 0 0 3 3 6 10 10 10 6 6 6 10 6 3 3 3 3 0 0 0 0 0 0 0 0 0 0 0 0 0 0 0 0 0 0 0 0 0
19 16 13 13 10 0 0 0 3 6 10 10 3 3 10 3 0 0 0 0 0 0 0 0 0 0 0 0 0 0 0 0 0 0 0 0 0 0 0 0 0 0 0
32 19 10 10 6 0 0 0 0 3 6 10 3 3 0 0 0 0 0 0 0 0 0 0 0 0 0 0 0 0 0 0 0 0 0 0 0 0 0 0 0 0 0
23 19 13 10 16 0 0 0 0 0 6 6 3 3 3 3 0 0 0 0 0 0 0 0 0 0 0 0 0 0 0 0 0 0 0 0 0 0 0 0 0 0 0
29 26 23 13 10 3 0 0 0 0 3 0 0 0 0 0 0 0 0 0 0 0 0 0 0 0 0 0 0 0 0 0 0 0 0 0 0 0 0 0 0 0 0
29 29 6 16 10 10 3 0 0 0 0 3 0 0 0 0 0 0 0 0 0 0 0 0 0 0 0 0 0 0 0 0 0 0 0 0 0 0 0 0 0 0 0

GEFSMA_con_cape1000_228.txt.gz
Probability
10 16 13 13 13 16 13 13 13 13 10 10 10 6 3 6 6 6 10 32 42 48 45 39 39 35 45 42 45 55 52 45 45 48 48 52 48 48 61 68 61 68 68
6 6 10 10 10 10 13 13 10 10 10 10 10 6 3 3 3 3 3 10 35 48 45 39 35 39 32 39 42 39 39 42 42 42 45 48 45 48 52 55 58 61 61
6 10 6 6 10 10 10 10 13 6 6 10 6 3 3 3 3 3 3 6 13 29 42 39 39 32 32 26 29 26 19 26 29 32 32 39 39 45 45 42 39 35 42
10 6 6 6 6 6 6 6 6 6 6 3 0 0 0 0 3 0 0 3 10 13 16 35 39 32 26 23 23 23 19 26 29 23 35 35 39 35 29 35 32 32 32
3 3 3 3 6 3 3 3 3 3 3 3 3 0 0 0 0 0 0 0 6 6 6 10 19 26 19 19 19 23 19 26 26 26 32 39 35 32 32 26 26 29 29
3 0 0 3 3 6 3 3 0 0 3 0 3 3 0 0 0 0 0 0 0 3 3 3 10 13 19 19 23 26 23 23 26 26 23 26 35 29 29 26 19 19 19
3 0 3 3 3 0 3 0 0 3 3 0 3 0 0 0 0 0 0 0 0 0 0 0 0 3 10 19 23 26 23 23 23 26 26 23 26 26 26 19 19 19 10
3 3 3 3 3 0 0 0 0 0 3 3 0 0 0 0 0 0 0 0 0 0 0 0 0 0 0 6 10 16 23 23 29 26 26 26 23 23 23 19 19 19 16
0 3 0 0 0 0 0 0 0 0 3 3 0 0 0 0 0 0 0 0 0 0 0 0 0 0 0 0 0 10 13 10 16 23 23 29 19 23 19 19 16 16 13
0 0 3 3 3 3 0 0 0 0 0 0 0 0 0 0 0 0 0 0 0 0 0 0 0 0 0 0 0 0 3 6 10 19 19 19 16 19 19 13 13 16 16
0 0 3 3 3 3 0 0 0 0 0 0 0 0 0 0 0 0 0 0 0 0 0 0 0 0 0 0 0 0 0 0 3 6 10 13 16 16 13 19 19 19 16
0 0 0 0 3 3 0 0 0 0 0 0 0 0 0 0 0 0 0 0 0 0 0 0 0 0 0 0 3 3 0 0 0 0 3 6 13 19 16 16 16 16 16
0 0 0 3 3 3 0 0 0 0 0 0 0 0 0 0 0 0 0 0 0 0 0 0 0 0 0 0 0 3 0 0 0 0 0 0 0 6 6 6 13 13 16
0 0 0 3 3 3 3 0 0 0 0 0 0 0 0 0 0 0 0 0 0 0 0 0 0 0 0 0 0 0 3 0 0 0 0 0 0 0 3 6 6 6 3
0 0 0 0 3 3 0 0 0 0 0 0 0 0 0 0 0 0 0 0 0 0 0 0 0 0 0 0 0 0 0 0 0 0 0 0 0 0 0 0 3 3 0
0 0 0 0 3 0 0 0 0 0 0 0 0 0 0 0 0 0 0 0 0 0 0 0 0 0 0 0 0 0 0 0 0 0 0 0 0 0 0 0 0 0 0
0 0 0 0 0 0 0 0 0 0 0 0 0 0 0 0 0 0 0 0 0 0 0 0 0 0 0 0 0 0 0 0 0 0 0 0 0 0 0 0 0 0 0
0 0 0 0 0 0 0 0 0 0 0 0 0 0 0 0 0 0 0 0 0 0 0 0 0 0 0 0 0 0 0 0 0 0 0 0 0 0 0 0 0 0 0
0 0 0 0 0 0 0 0 0 0 0 0 0 0 0 0 0 0 0 0 0 0 0 0 0 0 0 0 0 0 0 0 0 0 0 0 0 0 0 0 0 0 0
0 0 0 0 0 0 0 0 0 0 0 0 0 0 0 0 0 0 0 0 0 0 0 0 0 0 0 0 0 0 0 0 0 0 0 0 0 0 0 0 0 0 0
0 0 0 0 0 0 0 0 0 0 0 0 0 0 0 0 0 0 0 0 0 0 0 0 0 0 0 0 0 0 0 0 0 0 0 0 0 0 0 0 0 0 0
0 0 0 0 0 0 0 0 0 0 0 0 0 0 0 0 0 0 0 0 0 0 0 0 0 0 0 0 0 0 0 0 0 0 0 0 0 0 0 0 0 0 0
0 0 0 0 0 0 0 0 0 0 0 0 0 0 0 0 0 0 0 0 0 0 0 0 0 0 0 0 0 0 0 0 0 0 0 0 0 0 0 0 0 0 0
0 0 0 0 0 0 0 0 0 0 0 0 0 0 0 0 0 0 0 0 0 0 0 0 0 0 0 0 0 0 0 0 0 0 0 0 0 0 0 0 0 0 0
0 0 0 0 0 0 0 0 0 0 0 0 0 0 0 0 0 0 0 0 0 0 0 0 0 0 0 0 0 0 0 0 0 0 0 0 0 0 0 0 0 0 0
0 0 0 0 0 0 0 0 0 0 0 0 0 0 0 0 0 0 0 0 0 0 0 0 0 0 0 0 0 0 0 0 0 0 0 0 0 0 0 0 0 0 0

GEFSMA_con_cape1000_234.txt.gz
Probability
13 13 13 13 13 13 10 10 10 10 10 10 10 13 13 10 10 10 6 13 29 39 35 35 39 42 42 39 48 42 42 45 39 42 42 35 48 48 48 55 61 61 48
10 10 10 10 13 10 10 10 10 10 10 10 6 3 6 10 13 10 13 10 26 32 32 39 39 35 35 39 39 42 39 35 39 32 35 39 39 39 45 48 52 48 45
6 10 10 6 10 10 10 10 10 10 10 10 6 3 3 3 6 10 13 6 10 26 35 42 42 39 42 35 32 29 23 29 29 23 29 32 29 32 35 42 39 39 39
6 3 6 3 3 6 6 6 6 6 3 3 3 3 3 3 3 6 6 10 6 6 10 32 35 35 39 29 26 26 26 23 23 19 19 26 35 32 29 39 35 29 29
3 0 0 0 0 0 3 3 3 3 3 3 0 0 0 3 3 3 6 6 6 6 10 16 19 23 19 19 26 23 19 19 19 19 19 19 23 23 23 26 26 29 29
0 0 0 0 0 0 3 3 3 3 3 3 0 0 0 0 0 0 0 6 6 6 6 10 16 13 16 16 23 23 23 23 19 19 19 16 19 26 23 23 19 16 19
3 0 0 0 0 0 0 3 3 3 3 0 0 0 0 0 0 0 0 0 0 0 3 6 6 10 10 13 19 29 23 19 26 19 19 23 19 23 26 23 23 19 16
3 0 0 0 0 0 0 3 3 3 3 0 0 0 0 0 0 0 0 0 0 0 0 0 3 6 6 10 10 13 16 19 26 26 19 19 23 23 23 23 23 19 13
0 0 0 0 0 0 0 0 0 0 0 0 0 0 0 0 0 0 0 0 0 0 0 0 0 0 0 6 10 10 10 13 16 23 19 23 16 13 19 19 19 16 13
0 0 0 0 0 0 0 0 0 0 0 3 0 0 0 0 0 0 0 0 0 0 0 0 0 0 0 0 0 0 0 0 6 13 19 23 16 10 13 16 19 16 13
0 0 0 0 0 0 0 0 0 0 0 0 0 0 0 0 0 0 0 0 0 0 0 0 0 0 0 0 0 0 0 0 0 0 10 13 16 13 10 13 16 13 10
0 0 0 0 0 0 0 0 0 0 0 0 0 0 0 0 0 0 0 0 0 0 0 0 0 0 0 0 0 0 0 0 0 0 0 6 10 10 10 10 13 10 10
0 0 0 0 0 0 0 0 0 0 0 0 0 0 0 0 0 0 0 0 0 0 0 0 0 0 0 0 0 0 0 0 0 0 0 0 0 10 10 10 10 10 10
0 0 0 0 0 0 0 0 0 0 0 0 0 0 0 0 0 0 0 0 0 0 0 0 0 0 0 0 0 0 0 0 0 0 0 0 0 0 6 6 3 6 6
0 0 0 0 0 0 0 0 0 0 0 0 0 0 0 0 0 0 0 0 0 0 0 0 0 0 0 0 0 0 0 0 0 0 0 0 0 0 0 0 0 3 3
0 0 0 0 0 0 0 0 0 0 0 0 0 0 0 0 0 0 0 0 0 0 0 0 0 0 0 0 0 0 0 0 0 0 0 0 0 0 0 0 0 0 0
0 0 0 0 0 0 0 0 0 0 0 0 0 0 0 0 0 0 0 0 0 0 0 0 0 0 0 0 0 0 0 0 0 0 0 0 0 0 0 0 0 0 0
0 0 0 0 0 0 0 0 0 0 0 0 0 0 0 0 0 0 0 0 0 0 0 0 0 0 0 0 0 0 0 0 0 0 0 0 0 0 0 0 0 0 0
0 0 0 0 0 0 0 0 0 0 0 0 0 0 0 0 0 0 0 0 0 0 0 0 0 0 0 0 0 0 0 0 0 0 0 0 0 0 0 0 0 0 0
0 0 0 0 0 0 0 0 0 0 0 0 0 0 0 0 0 0 0 0 0 0 0 0 0 0 0 0 0 0 0 0 0 0 0 0 0 0 0 0 0 0 0
0 0 0 0 0 0 0 0 0 0 0 0 0 0 0 0 0 0 0 0 0 0 0 0 0 0 0 0 0 0 0 0 0 0 0 0 0 0 0 0 0 0 0
0 0 0 0 0 0 0 0 0 0 0 0 0 0 0 0 0 0 0 0 0 0 0 0 0 0 0 0 0 0 0 0 0 0 0 0 0 0 0 0 0 0 0
0 0 0 0 0 0 0 0 0 0 0 0 0 0 0 0 0 0 0 0 0 0 0 0 0 0 0 0 0 0 0 0 0 0 0 0 0 0 0 0 0 0 0
0 0 0 0 0 0 0 0 0 0 0 0 0 0 0 0 0 0 0 0 0 0 0 0 0 0 0 0 0 0 0 0 0 0 0 0 0 0 0 0 0 0 0
0 0 0 0 0 0 0 0 0 0 0 0 0 0 0 0 0 0 0 0 0 0 0 0 0 0 0 0 0 0 0 0 0 0 0 0 0 0 0 0 0 0 0
0 0 0 0 0 0 0 0 0 0 0 0 0 0 0 0 0 0 0 0 0 0 0 0 0 0 0 0 0 0 0 0 0 0 0 0 0 0 0 0 0 0 0

GEFSMA_con_cape1000_240.txt.gz
Probability
32 26 42 35 32 32 29 23 19 13 16 13 10 10 13 16 16 19 19 26 32 29 29 29 32 32 35 32 32 35 39 39 39 39 39 45 42 42 45 42 45 45 45
32 32 29 32 32 32 29 26 19 13 13 13 13 16 16 16 13 16 16 16 29 29 26 29 26 35 39 35 35 32 32 39 39 35 29 29 42 42 45 42 42 45 42
29 26 23 32 29 29 29 23 19 19 16 13 10 13 13 6 13 10 13 19 19 16 23 26 26 29 32 39 39 32 32 29 32 32 29 26 29 26 32 42 42 39 42
26 29 26 23 23 23 26 23 19 16 10 10 13 16 10 19 10 13 13 13 16 13 10 13 19 29 32 29 23 26 29 29 32 29 26 23 23 19 16 19 32 26 26
23 26 26 26 23 23 23 23 16 16 13 16 10 19 16 16 13 6 10 10 13 13 16 13 16 19 23 23 23 26 32 32 29 32 26 26 29 29 19 16 16 19 19
13 26 26 26 23 23 26 23 23 19 19 19 3 6 10 10 6 10 3 6 10 13 16 10 13 10 16 16 19 19 19 29 26 29 26 29 29 29 26 23 16 16 16
16 16 10 19 19 23 23 23 23 19 13 16 6 6 3 6 6 6 6 0 3 10 10 6 10 13 16 10 16 19 23 19 26 23 23 29 26 26 19 19 19 16 13
13 10 13 16 16 19 23 19 19 16 10 13 10 10 6 6 6 0 3 6 6 3 6 3 10 16 13 16 10 16 26 23 29 26 26 19 19 16 13 16 16 16 13
10 6 10 6 16 13 19 19 23 16 13 10 13 10 6 3 3 3 3 3 6 10 10 10 6 6 6 6 16 10 13 10 26 19 19 16 16 10 13 13 10 13 13
13 6 6 3 3 3 16 13 10 13 16 13 13 6 6 3 0 3 3 3 6 6 3 0 3 13 13 6 10 3 0 0 10 16 23 16 16 16 13 10 10 10 10
10 3 3 3 3 3 10 10 13 13 13 16 16 10 6 6 0 0 3 6 3 3 3 6 10 10 13 13 23 6 0 0 0 6 10 13 19 13 13 13 13 13 13
10 0 0 3 3 3 6 10 13 13 13 10 10 10 10 6 3 0 0 3 3 0 6 10 10 13 10 6 3 3 0 0 0 0 3 6 10 10 13 16 16 13 13
6 6 0 3 3 6 6 10 13 13 10 10 10 6 3 10 6 10 10 0 6 3 3 10 10 10 6 10 19 3 0 0 0 0 0 0 0 6 10 13 10 10 13
0 0 0 3 3 3 0 6 6 10 10 10 10 13 13 13 13 10 6 6 6 6 6 3 10 10 6 6 6 0 3 0 0 0 0 0 0 0 3 3 3 3 3
3 3 3 3 3 6 6 10 6 10 10 10 13 13 13 10 10 10 6 10 6 6 6 6 16 6 10 10 6 10 16 0 0 0 0 0 0 0 0 0 0 0 0
3 6 6 0 3 0 6 13 3 10 13 13 16 10 10 13 10 6 6 3 3 13 10 6 19 3 6 0 0 13 13 0 0 0 0 0 0 0 0 0 0 0 0
10 6 10 10 3 0 0 6 3 10 10 13 10 10 10 6 6 6 6 6 3 10 6 10 16 6 6 10 10 10 10 16 6 0 0 0 0 0 0 0 0 0 0
6 6 6 3 6 3 3 3 3 3 10 13 13 10 6 3 10 3 6 6 6 13 13 10 16 13 13 13 13 10 6 0 3 0 0 0 0 0 0 0 0 0 0
6 6 3 3 3 3 6 6 3 6 10 10 10 6 6 10 10 6 6 10 10 6 10 6 6 10 10 10 13 10 0 13 0 0 0 0 0 0 0 0 0 0 0
6 6 6 3 3 3 3 3 6 6 13 10 10 3 3 6 6 6 6 6 10 10 13 10 10 6 10 6 10 13 13 6 0 0 0 0 0 0 0 0 0 0 0
6 6 6 6 6 3 0 0 6 0 6 6 3 6 6 3 3 0 0 10 6 13 10 10 10 3 3 6 3 6 6 13 6 3 3 3 0 0 0 0 0 0 0
6 6 6 6 6 0 0 0 0 10 3 0 6 3 3 0 0 0 0 0 0 6 10 10 6 3 6 6 6 6 13 10 3 3 3 3 6 3 3 0 0 0 0
6 6 10 6 6 6 0 0 0 0 3 13 13 10 0 0 0 0 0 0 0 0 0 3 10 10 10 6 10 3 6 3 3 3 3 0 0 3 3 0 0 0 0
13 10 10 6 10 6 0 0 0 0 3 10 10 10 10 10 0 0 0 0 3 0 0 0 0 6 3 10 6 6 6 3 6 6 0 0 3 3 0 3 0 0 0
16 13 10 6 6 6 0 0 0 3 6 3 6 10 6 6 0 0 0 0 0 3 0 0 0 0 0 0 3 6 3 3 0 0 3 0 0 3 3 3 3 0 0
16 6 3 6 6 10 0 0 0 0 3 10 3 6 0 0 0 0 3 3 3 3 0 0 0 0 0 0 0 3 3 3 0 0 0 3 0 0 0 0 0 0 0